Wetterdaten: Montag, 03.10.2016
Datum Zeit Temp. A. Feuchte A. Luftdruck Regen Wind Richtung Richtung Sonnenschein ET UV Solar Taupunkt Windchill Windben Empfang
03.10.2016 00:00 11,3 C 96 % 1018,4 hPa 0,0 l/m 8,1 km/h (2 Bft) S-SW 193 0 min 0,000 mm 0,0 UV-I 0 W/m 10,7 C 10,2 C 12,9 km/h (3 Bft) 100,00 %
03.10.2016 00:02 11,3 C 96 % 1018,4 hPa 0,0 l/m 6,9 km/h (2 Bft) S 180 0 min 0,000 mm 0,0 UV-I 0 W/m 10,7 C 11,0 C 9,7 km/h (2 Bft) 5,56 %
03.10.2016 00:04 11,3 C 96 % 1018,4 hPa 0,0 l/m 5,3 km/h (1 Bft) S 173 0 min 0,000 mm 0,0 UV-I 0 W/m 10,7 C 11,3 C 8,0 km/h (2 Bft) 92,68 %
03.10.2016 00:06 11,3 C 96 % 1018,4 hPa 0,0 l/m 5,8 km/h (2 Bft) S-SW 202 0 min 0,000 mm 0,0 UV-I 0 W/m 10,7 C 11,3 C 8,0 km/h (2 Bft) 100,00 %
03.10.2016 00:08 11,3 C 96 % 1018,4 hPa 0,0 l/m 4,9 km/h (1 Bft) S-SW 205 0 min 0,000 mm 0,0 UV-I 0 W/m 10,7 C 11,3 C 9,7 km/h (2 Bft) 98,00 %
03.10.2016 00:10 11,3 C 96 % 1018,4 hPa 0,0 l/m 6,9 km/h (2 Bft) S 188 0 min 0,000 mm 0,0 UV-I 0 W/m 10,7 C 11,0 C 11,3 km/h (2 Bft) 100,00 %
03.10.2016 00:12 11,3 C 96 % 1018,4 hPa 0,2 l/m 7,1 km/h (2 Bft) SW 222 0 min 0,000 mm 0,0 UV-I 0 W/m 10,7 C 10,8 C 9,7 km/h (2 Bft) 100,00 %
03.10.2016 00:14 11,2 C 96 % 1018,5 hPa 0,0 l/m 6,0 km/h (2 Bft) S-SW 200 0 min 0,000 mm 0,0 UV-I 0 W/m 10,6 C 11,2 C 8,0 km/h (2 Bft) 100,00 %
03.10.2016 00:16 11,3 C 96 % 1018,5 hPa 0,0 l/m 5,5 km/h (1 Bft) S 188 0 min 0,000 mm 0,0 UV-I 0 W/m 10,7 C 11,3 C 8,0 km/h (2 Bft) 97,87 %
03.10.2016 00:18 11,2 C 96 % 1018,5 hPa 0,0 l/m 6,0 km/h (2 Bft) S-SW 211 0 min 0,000 mm 0,0 UV-I 0 W/m 10,6 C 11,2 C 9,7 km/h (2 Bft) 97,56 %
03.10.2016 00:20 11,3 C 96 % 1018,5 hPa 0,0 l/m 3,7 km/h (1 Bft) S 186 0 min 0,000 mm 0,0 UV-I 0 W/m 10,7 C 11,3 C 6,4 km/h (2 Bft) 100,00 %
03.10.2016 00:22 11,2 C 96 % 1018,6 hPa 0,0 l/m 5,8 km/h (2 Bft) SW 223 0 min 0,000 mm 0,0 UV-I 0 W/m 10,6 C 11,2 C 8,0 km/h (2 Bft) 100,00 %
03.10.2016 00:24 11,2 C 96 % 1018,5 hPa 0,0 l/m 6,1 km/h (2 Bft) S 177 0 min 0,000 mm 0,0 UV-I 0 W/m 10,6 C 11,2 C 11,3 km/h (2 Bft) 100,00 %
03.10.2016 00:26 11,3 C 96 % 1018,5 hPa 0,0 l/m 5,3 km/h (1 Bft) S-SW 205 0 min 0,000 mm 0,0 UV-I 0 W/m 10,7 C 11,3 C 8,0 km/h (2 Bft) 100,00 %
03.10.2016 00:28 11,2 C 96 % 1018,5 hPa 0,0 l/m 5,5 km/h (1 Bft) S-SW 202 0 min 0,000 mm 0,0 UV-I 0 W/m 10,6 C 11,2 C 9,7 km/h (2 Bft) 100,00 %
03.10.2016 00:30 11,2 C 96 % 1018,4 hPa 0,0 l/m 5,8 km/h (2 Bft) S-SW 196 0 min 0,000 mm 0,0 UV-I 0 W/m 10,6 C 11,2 C 9,7 km/h (2 Bft) 98,00 %
03.10.2016 00:32 11,2 C 96 % 1018,4 hPa 0,2 l/m 6,1 km/h (2 Bft) S-SO 160 0 min 0,000 mm 0,0 UV-I 0 W/m 10,6 C 11,2 C 8,0 km/h (2 Bft) 100,00 %
03.10.2016 00:34 11,2 C 96 % 1018,4 hPa 0,0 l/m 6,4 km/h (2 Bft) S 181 0 min 0,000 mm 0,0 UV-I 0 W/m 10,6 C 11,2 C 11,3 km/h (2 Bft) 97,37 %
03.10.2016 00:36 11,2 C 96 % 1018,3 hPa 0,0 l/m 5,6 km/h (1 Bft) S 186 0 min 0,000 mm 0,0 UV-I 0 W/m 10,6 C 11,2 C 8,0 km/h (2 Bft) 100,00 %
03.10.2016 00:38 11,2 C 96 % 1018,4 hPa 0,0 l/m 4,6 km/h (1 Bft) S-SW 192 0 min 0,000 mm 0,0 UV-I 0 W/m 10,6 C 11,2 C 8,0 km/h (2 Bft) 100,00 %
03.10.2016 00:40 11,2 C 96 % 1018,4 hPa 0,0 l/m 6,9 km/h (2 Bft) S 177 0 min 0,000 mm 0,0 UV-I 0 W/m 10,6 C 10,9 C 11,3 km/h (2 Bft) 100,00 %
03.10.2016 00:42 11,2 C 96 % 1018,4 hPa 0,0 l/m 5,9 km/h (2 Bft) S-SO 151 0 min 0,000 mm 0,0 UV-I 0 W/m 10,6 C 11,2 C 14,5 km/h (3 Bft) 100,00 %
03.10.2016 00:44 11,2 C 96 % 1018,4 hPa 0,0 l/m 4,5 km/h (1 Bft) S-SW 205 0 min 0,000 mm 0,0 UV-I 0 W/m 10,6 C 11,2 C 6,4 km/h (2 Bft) 100,00 %
03.10.2016 00:46 11,2 C 96 % 1018,4 hPa 0,0 l/m 6,2 km/h (2 Bft) S-SW 210 0 min 0,000 mm 0,0 UV-I 0 W/m 10,6 C 11,2 C 9,7 km/h (2 Bft) 100,00 %
03.10.2016 00:48 11,2 C 96 % 1018,4 hPa 0,0 l/m 5,5 km/h (1 Bft) SW 234 0 min 0,000 mm 0,0 UV-I 0 W/m 10,6 C 11,2 C 8,0 km/h (2 Bft) 95,12 %
03.10.2016 00:50 11,2 C 96 % 1018,4 hPa 0,0 l/m 5,3 km/h (1 Bft) S-SW 205 0 min 0,000 mm 0,0 UV-I 0 W/m 10,6 C 11,2 C 8,0 km/h (2 Bft) 96,00 %
03.10.2016 00:52 11,2 C 96 % 1018,4 hPa 0,0 l/m 5,3 km/h (1 Bft) SW 215 0 min 0,000 mm 0,0 UV-I 0 W/m 10,6 C 11,2 C 9,7 km/h (2 Bft) 97,87 %
03.10.2016 00:54 11,2 C 96 % 1018,4 hPa 0,0 l/m 4,4 km/h (1 Bft) SW 214 0 min 0,000 mm 0,0 UV-I 0 W/m 10,6 C 11,2 C 6,4 km/h (2 Bft) 98,04 %
03.10.2016 00:56 11,1 C 96 % 1018,4 hPa 0,0 l/m 5,3 km/h (1 Bft) S-SW 197 0 min 0,000 mm 0,0 UV-I 0 W/m 10,5 C 11,1 C 9,7 km/h (2 Bft) 97,87 %
03.10.2016 00:58 11,1 C 96 % 1018,4 hPa 0,0 l/m 3,7 km/h (1 Bft) S-SW 211 0 min 0,000 mm 0,0 UV-I 0 W/m 10,5 C 11,1 C 8,0 km/h (2 Bft) 98,00 %
03.10.2016 01:00 11,1 C 96 % 1018,4 hPa 0,0 l/m 4,4 km/h (1 Bft) S 171 0 min 0,000 mm 0,0 UV-I 0 W/m 10,5 C 11,1 C 6,4 km/h (2 Bft) 97,37 %
03.10.2016 01:02 11,1 C 96 % 1018,5 hPa 0,0 l/m 5,9 km/h (2 Bft) W-SW 239 0 min 0,000 mm 0,0 UV-I 0 W/m 10,5 C 11,1 C 11,3 km/h (2 Bft) 96,00 %
03.10.2016 01:04 11,1 C 96 % 1018,5 hPa 0,0 l/m 5,8 km/h (2 Bft) SW 225 0 min 0,000 mm 0,0 UV-I 0 W/m 10,5 C 11,1 C 8,0 km/h (2 Bft) 95,74 %
03.10.2016 01:06 11,1 C 96 % 1018,4 hPa 0,0 l/m 6,4 km/h (2 Bft) SW 230 0 min 0,000 mm 0,0 UV-I 0 W/m 10,5 C 11,1 C 8,0 km/h (2 Bft) 98,00 %
03.10.2016 01:08 11,1 C 96 % 1018,5 hPa 0,0 l/m 5,0 km/h (1 Bft) SW 226 0 min 0,000 mm 0,0 UV-I 0 W/m 10,5 C 11,1 C 8,0 km/h (2 Bft) 97,73 %
03.10.2016 01:10 11,1 C 96 % 1018,4 hPa 0,0 l/m 5,3 km/h (1 Bft) SW 223 0 min 0,000 mm 0,0 UV-I 0 W/m 10,5 C 11,1 C 8,0 km/h (2 Bft) 97,92 %
03.10.2016 01:12 11,1 C 96 % 1018,5 hPa 0,0 l/m 3,7 km/h (1 Bft) S-SW 212 0 min 0,000 mm 0,0 UV-I 0 W/m 10,5 C 11,1 C 6,4 km/h (2 Bft) 97,87 %
03.10.2016 01:14 11,1 C 96 % 1018,5 hPa 0,0 l/m 4,4 km/h (1 Bft) W-SW 247 0 min 0,000 mm 0,0 UV-I 0 W/m 10,5 C 11,1 C 6,4 km/h (2 Bft) 97,73 %
03.10.2016 01:16 11,1 C 96 % 1018,5 hPa 0,0 l/m 6,9 km/h (2 Bft) W-SW 246 0 min 0,000 mm 0,0 UV-I 0 W/m 10,5 C 10,8 C 9,7 km/h (2 Bft) 96,23 %
03.10.2016 01:18 11,1 C 96 % 1018,4 hPa 0,0 l/m 6,3 km/h (2 Bft) SW 234 0 min 0,000 mm 0,0 UV-I 0 W/m 10,5 C 11,1 C 9,7 km/h (2 Bft) 97,56 %
03.10.2016 01:20 11,1 C 96 % 1018,5 hPa 0,0 l/m 4,5 km/h (1 Bft) S-SW 213 0 min 0,000 mm 0,0 UV-I 0 W/m 10,5 C 11,1 C 8,0 km/h (2 Bft) 98,11 %
03.10.2016 01:22 11,0 C 96 % 1018,5 hPa 0,0 l/m 5,9 km/h (2 Bft) SW 217 0 min 0,000 mm 0,0 UV-I 0 W/m 10,4 C 11,0 C 8,0 km/h (2 Bft) 97,56 %
03.10.2016 01:24 11,0 C 96 % 1018,5 hPa 0,0 l/m 5,2 km/h (1 Bft) SW 215 0 min 0,000 mm 0,0 UV-I 0 W/m 10,4 C 11,0 C 8,0 km/h (2 Bft) 98,00 %
03.10.2016 01:26 11,0 C 96 % 1018,5 hPa 0,0 l/m 5,7 km/h (1 Bft) S-SW 199 0 min 0,000 mm 0,0 UV-I 0 W/m 10,4 C 11,0 C 9,7 km/h (2 Bft) 100,00 %
03.10.2016 01:28 11,0 C 96 % 1018,5 hPa 0,0 l/m 5,5 km/h (1 Bft) SW 221 0 min 0,000 mm 0,0 UV-I 0 W/m 10,4 C 11,0 C 8,0 km/h (2 Bft) 100,00 %
03.10.2016 01:30 11,0 C 96 % 1018,6 hPa 0,0 l/m 7,4 km/h (2 Bft) S-SW 201 0 min 0,000 mm 0,0 UV-I 0 W/m 10,4 C 10,3 C 14,5 km/h (3 Bft) 100,00 %
03.10.2016 01:32 11,0 C 96 % 1018,6 hPa 0,0 l/m 8,0 km/h (2 Bft) S-SW 198 0 min 0,000 mm 0,0 UV-I 0 W/m 10,4 C 9,9 C 11,3 km/h (2 Bft) 100,00 %
03.10.2016 01:34 11,0 C 96 % 1018,7 hPa 0,0 l/m 7,2 km/h (2 Bft) W-SW 245 0 min 0,000 mm 0,0 UV-I 0 W/m 10,4 C 10,4 C 11,3 km/h (2 Bft) 97,37 %
03.10.2016 01:36 11,0 C 96 % 1018,7 hPa 0,0 l/m 7,4 km/h (2 Bft) SW 227 0 min 0,000 mm 0,0 UV-I 0 W/m 10,4 C 10,3 C 12,9 km/h (3 Bft) 100,00 %
03.10.2016 01:38 11,0 C 96 % 1018,7 hPa 0,0 l/m 6,7 km/h (2 Bft) W-SW 241 0 min 0,000 mm 0,0 UV-I 0 W/m 10,4 C 10,8 C 9,7 km/h (2 Bft) 100,00 %
03.10.2016 01:40 11,0 C 96 % 1018,8 hPa 0,0 l/m 6,4 km/h (2 Bft) S-SW 211 0 min 0,000 mm 0,0 UV-I 0 W/m 10,4 C 11,0 C 11,3 km/h (2 Bft) 98,00 %
03.10.2016 01:42 11,0 C 96 % 1018,9 hPa 0,0 l/m 7,7 km/h (2 Bft) SW 234 0 min 0,000 mm 0,0 UV-I 0 W/m 10,4 C 10,1 C 12,9 km/h (3 Bft) 98,00 %
03.10.2016 01:44 11,0 C 96 % 1018,9 hPa 0,0 l/m 8,0 km/h (2 Bft) SW 234 0 min 0,000 mm 0,0 UV-I 0 W/m 10,4 C 9,9 C 12,9 km/h (3 Bft) 100,00 %
03.10.2016 01:46 11,0 C 96 % 1018,9 hPa 0,0 l/m 7,7 km/h (2 Bft) S 186 0 min 0,000 mm 0,0 UV-I 0 W/m 10,4 C 10,1 C 12,9 km/h (3 Bft) 100,00 %
03.10.2016 01:48 11,0 C 96 % 1018,8 hPa 0,0 l/m 7,1 km/h (2 Bft) W-SW 240 0 min 0,000 mm 0,0 UV-I 0 W/m 10,4 C 10,5 C 12,9 km/h (3 Bft) 94,55 %
03.10.2016 01:50 11,1 C 96 % 1018,8 hPa 0,0 l/m 7,1 km/h (2 Bft) W 261 0 min 0,000 mm 0,0 UV-I 0 W/m 10,5 C 10,6 C 14,5 km/h (3 Bft) 100,00 %
03.10.2016 01:52 11,1 C 96 % 1018,9 hPa 0,0 l/m 6,7 km/h (2 Bft) SW 234 0 min 0,000 mm 0,0 UV-I 0 W/m 10,5 C 10,9 C 11,3 km/h (2 Bft) 100,00 %
03.10.2016 01:54 11,1 C 96 % 1018,9 hPa 0,0 l/m 7,2 km/h (2 Bft) W 261 0 min 0,000 mm 0,0 UV-I 0 W/m 10,5 C 10,5 C 11,3 km/h (2 Bft) 100,00 %
03.10.2016 01:56 11,1 C 96 % 1018,9 hPa 0,0 l/m 9,6 km/h (2 Bft) W-SW 251 0 min 0,000 mm 0,0 UV-I 0 W/m 10,5 C 9,0 C 14,5 km/h (3 Bft) 97,14 %
03.10.2016 01:58 11,1 C 96 % 1018,9 hPa 0,0 l/m 8,4 km/h (2 Bft) W 262 0 min 0,000 mm 0,0 UV-I 0 W/m 10,5 C 9,8 C 12,9 km/h (3 Bft) 100,00 %
03.10.2016 02:00 11,1 C 96 % 1018,9 hPa 0,0 l/m 7,5 km/h (2 Bft) W 261 0 min 0,000 mm 0,0 UV-I 0 W/m 10,5 C 10,3 C 12,9 km/h (3 Bft) 100,00 %
03.10.2016 02:02 11,1 C 96 % 1018,9 hPa 0,0 l/m 7,4 km/h (2 Bft) W-SW 244 0 min 0,000 mm 0,0 UV-I 0 W/m 10,5 C 10,4 C 12,9 km/h (3 Bft) 97,56 %
03.10.2016 02:04 11,1 C 96 % 1018,9 hPa 0,0 l/m 6,9 km/h (2 Bft) SW 224 0 min 0,000 mm 0,0 UV-I 0 W/m 10,5 C 10,8 C 11,3 km/h (2 Bft) 100,00 %
03.10.2016 02:06 11,1 C 96 % 1018,9 hPa 0,0 l/m 9,3 km/h (2 Bft) SW 219 0 min 0,000 mm 0,0 UV-I 0 W/m 10,5 C 9,2 C 14,5 km/h (3 Bft) 100,00 %
03.10.2016 02:08 11,1 C 96 % 1018,9 hPa 0,0 l/m 7,9 km/h (2 Bft) W-SW 252 0 min 0,000 mm 0,0 UV-I 0 W/m 10,5 C 10,1 C 12,9 km/h (3 Bft) 98,00 %
03.10.2016 02:10 11,1 C 96 % 1019,0 hPa 0,0 l/m 9,5 km/h (2 Bft) SW 232 0 min 0,000 mm 0,0 UV-I 0 W/m 10,5 C 9,1 C 14,5 km/h (3 Bft) 100,00 %
03.10.2016 02:12 11,1 C 96 % 1019,1 hPa 0,0 l/m 6,6 km/h (2 Bft) S-SW 212 0 min 0,000 mm 0,0 UV-I 0 W/m 10,5 C 11,0 C 11,3 km/h (2 Bft) 100,00 %
03.10.2016 02:14 11,1 C 96 % 1019,1 hPa 0,0 l/m 8,3 km/h (2 Bft) W-SW 245 0 min 0,000 mm 0,0 UV-I 0 W/m 10,5 C 9,8 C 12,9 km/h (3 Bft) 98,00 %
03.10.2016 02:16 11,1 C 96 % 1019,0 hPa 0,0 l/m 6,8 km/h (2 Bft) W-SW 238 0 min 0,000 mm 0,0 UV-I 0 W/m 10,5 C 10,8 C 11,3 km/h (2 Bft) 100,00 %
03.10.2016 02:18 11,1 C 96 % 1019,1 hPa 0,0 l/m 7,5 km/h (2 Bft) SW 228 0 min 0,000 mm 0,0 UV-I 0 W/m 10,5 C 10,3 C 12,9 km/h (3 Bft) 97,37 %
03.10.2016 02:20 11,1 C 96 % 1019,2 hPa 0,0 l/m 9,3 km/h (2 Bft) S-SW 213 0 min 0,000 mm 0,0 UV-I 0 W/m 10,5 C 9,2 C 12,9 km/h (3 Bft) 100,00 %
03.10.2016 02:22 11,1 C 96 % 1019,2 hPa 0,0 l/m 6,2 km/h (2 Bft) SW 233 0 min 0,000 mm 0,0 UV-I 0 W/m 10,5 C 11,1 C 9,7 km/h (2 Bft) 100,00 %
03.10.2016 02:24 11,0 C 96 % 1019,2 hPa 0,0 l/m 9,9 km/h (2 Bft) SW 223 0 min 0,000 mm 0,0 UV-I 0 W/m 10,4 C 8,8 C 14,5 km/h (3 Bft) 100,00 %
03.10.2016 02:26 11,0 C 96 % 1019,2 hPa 0,0 l/m 7,3 km/h (2 Bft) W-SW 240 0 min 0,000 mm 0,0 UV-I 0 W/m 10,4 C 10,4 C 11,3 km/h (2 Bft) 96,15 %
03.10.2016 02:28 11,0 C 96 % 1019,2 hPa 0,0 l/m 7,4 km/h (2 Bft) W 263 0 min 0,000 mm 0,0 UV-I 0 W/m 10,4 C 10,3 C 12,9 km/h (3 Bft) 98,04 %
03.10.2016 02:30 11,0 C 96 % 1019,2 hPa 0,0 l/m 8,0 km/h (2 Bft) W-SW 256 0 min 0,000 mm 0,0 UV-I 0 W/m 10,4 C 9,9 C 12,9 km/h (3 Bft) 97,37 %
03.10.2016 02:32 11,0 C 96 % 1019,2 hPa 0,0 l/m 8,2 km/h (2 Bft) SW 224 0 min 0,000 mm 0,0 UV-I 0 W/m 10,4 C 9,8 C 12,9 km/h (3 Bft) 100,00 %
03.10.2016 02:34 11,0 C 96 % 1019,2 hPa 0,0 l/m 8,4 km/h (2 Bft) W-SW 246 0 min 0,000 mm 0,0 UV-I 0 W/m 10,4 C 9,6 C 12,9 km/h (3 Bft) 100,00 %
03.10.2016 02:36 10,9 C 96 % 1019,3 hPa 0,0 l/m 10,6 km/h (2 Bft) SW 227 0 min 0,000 mm 0,0 UV-I 0 W/m 10,3 C 8,3 C 17,7 km/h (3 Bft) 98,21 %
03.10.2016 02:38 10,9 C 96 % 1019,2 hPa 0,0 l/m 7,3 km/h (2 Bft) SW 222 0 min 0,000 mm 0,0 UV-I 0 W/m 10,3 C 10,3 C 11,3 km/h (2 Bft) 100,00 %
03.10.2016 02:40 10,9 C 96 % 1019,3 hPa 0,0 l/m 9,1 km/h (2 Bft) W-SW 244 0 min 0,000 mm 0,0 UV-I 0 W/m 10,3 C 9,1 C 14,5 km/h (3 Bft) 100,00 %
03.10.2016 02:42 10,9 C 96 % 1019,3 hPa 0,0 l/m 9,2 km/h (2 Bft) SW 232 0 min 0,000 mm 0,0 UV-I 0 W/m 10,3 C 9,0 C 14,5 km/h (3 Bft) 100,00 %
03.10.2016 02:44 10,9 C 96 % 1019,2 hPa 0,0 l/m 6,5 km/h (2 Bft) SW 219 0 min 0,000 mm 0,0 UV-I 0 W/m 10,3 C 10,9 C 9,7 km/h (2 Bft) 100,00 %
03.10.2016 02:46 10,9 C 96 % 1019,3 hPa 0,0 l/m 7,0 km/h (2 Bft) W-SW 254 0 min 0,000 mm 0,0 UV-I 0 W/m 10,3 C 10,5 C 11,3 km/h (2 Bft) 97,87 %
03.10.2016 02:48 10,9 C 96 % 1019,3 hPa 0,0 l/m 5,8 km/h (2 Bft) SW 225 0 min 0,000 mm 0,0 UV-I 0 W/m 10,3 C 10,9 C 8,0 km/h (2 Bft) 100,00 %
03.10.2016 02:50 10,9 C 96 % 1019,4 hPa 0,0 l/m 5,5 km/h (1 Bft) SW 221 0 min 0,000 mm 0,0 UV-I 0 W/m 10,3 C 10,9 C 8,0 km/h (2 Bft) 97,73 %
03.10.2016 02:52 10,9 C 96 % 1019,4 hPa 0,0 l/m 5,9 km/h (2 Bft) S 180 0 min 0,000 mm 0,0 UV-I 0 W/m 10,3 C 10,9 C 9,7 km/h (2 Bft) 94,00 %
03.10.2016 02:54 10,9 C 96 % 1019,4 hPa 0,0 l/m 7,3 km/h (2 Bft) SW 218 0 min 0,000 mm 0,0 UV-I 0 W/m 10,3 C 10,3 C 11,3 km/h (2 Bft) 93,62 %
03.10.2016 02:56 10,9 C 96 % 1019,3 hPa 0,0 l/m 8,9 km/h (2 Bft) SW 223 0 min 0,000 mm 0,0 UV-I 0 W/m 10,3 C 9,2 C 11,3 km/h (2 Bft) 97,73 %
03.10.2016 02:58 10,9 C 96 % 1019,3 hPa 0,0 l/m 8,9 km/h (2 Bft) SW 228 0 min 0,000 mm 0,0 UV-I 0 W/m 10,3 C 9,2 C 12,9 km/h (3 Bft) 97,73 %
03.10.2016 03:00 10,9 C 96 % 1019,2 hPa 0,0 l/m 7,9 km/h (2 Bft) W-SW 240 0 min 0,000 mm 0,0 UV-I 0 W/m 10,3 C 9,9 C 11,3 km/h (2 Bft) 98,11 %
03.10.2016 03:02 10,9 C 96 % 1019,3 hPa 0,0 l/m 9,1 km/h (2 Bft) SW 229 0 min 0,000 mm 0,0 UV-I 0 W/m 10,3 C 9,1 C 12,9 km/h (3 Bft) 97,62 %
03.10.2016 03:04 10,9 C 96 % 1019,2 hPa 0,0 l/m 10,1 km/h (2 Bft) SW 220 0 min 0,000 mm 0,0 UV-I 0 W/m 10,3 C 8,5 C 16,1 km/h (3 Bft) 98,18 %
03.10.2016 03:06 10,9 C 96 % 1019,3 hPa 0,0 l/m 9,9 km/h (2 Bft) W-SW 244 0 min 0,000 mm 0,0 UV-I 0 W/m 10,3 C 8,6 C 16,1 km/h (3 Bft) 96,00 %
03.10.2016 03:08 10,9 C 96 % 1019,2 hPa 0,0 l/m 10,1 km/h (2 Bft) SW 218 0 min 0,000 mm 0,0 UV-I 0 W/m 10,3 C 8,5 C 16,1 km/h (3 Bft) 97,44 %
03.10.2016 03:10 10,9 C 96 % 1019,2 hPa 0,0 l/m 8,1 km/h (2 Bft) SW 234 0 min 0,000 mm 0,0 UV-I 0 W/m 10,3 C 9,7 C 12,9 km/h (3 Bft) 98,00 %
03.10.2016 03:12 10,9 C 96 % 1019,2 hPa 0,0 l/m 7,5 km/h (2 Bft) SW 236 0 min 0,000 mm 0,0 UV-I 0 W/m 10,3 C 10,1 C 11,3 km/h (2 Bft) 98,00 %
03.10.2016 03:14 10,9 C 96 % 1019,2 hPa 0,0 l/m 8,6 km/h (2 Bft) SW 227 0 min 0,000 mm 0,0 UV-I 0 W/m 10,3 C 9,4 C 14,5 km/h (3 Bft) 100,00 %
03.10.2016 03:16 10,9 C 96 % 1019,2 hPa 0,0 l/m 7,5 km/h (2 Bft) SW 223 0 min 0,000 mm 0,0 UV-I 0 W/m 10,3 C 10,1 C 11,3 km/h (2 Bft) 97,56 %
03.10.2016 03:18 10,9 C 96 % 1019,3 hPa 0,0 l/m 9,2 km/h (2 Bft) W-SW 257 0 min 0,000 mm 0,0 UV-I 0 W/m 10,3 C 9,0 C 16,1 km/h (3 Bft) 95,45 %
03.10.2016 03:20 10,9 C 95 % 1019,3 hPa 0,0 l/m 7,0 km/h (2 Bft) W-SW 242 0 min 0,000 mm 0,0 UV-I 0 W/m 10,1 C 10,5 C 12,9 km/h (3 Bft) 98,11 %
03.10.2016 03:22 10,9 C 95 % 1019,3 hPa 0,0 l/m 10,1 km/h (2 Bft) SW 231 0 min 0,000 mm 0,0 UV-I 0 W/m 10,1 C 8,5 C 17,7 km/h (3 Bft) 97,37 %
03.10.2016 03:24 10,9 C 95 % 1019,3 hPa 0,0 l/m 10,2 km/h (2 Bft) SW 231 0 min 0,000 mm 0,0 UV-I 0 W/m 10,1 C 8,5 C 14,5 km/h (3 Bft) 98,11 %
03.10.2016 03:26 10,9 C 95 % 1019,4 hPa 0,0 l/m 8,6 km/h (2 Bft) W-SW 248 0 min 0,000 mm 0,0 UV-I 0 W/m 10,1 C 9,4 C 14,5 km/h (3 Bft) 100,00 %
03.10.2016 03:28 10,9 C 95 % 1019,4 hPa 0,0 l/m 10,2 km/h (2 Bft) SW 216 0 min 0,000 mm 0,0 UV-I 0 W/m 10,1 C 8,5 C 17,7 km/h (3 Bft) 100,00 %
03.10.2016 03:30 10,9 C 95 % 1019,4 hPa 0,0 l/m 9,9 km/h (2 Bft) S-SW 208 0 min 0,000 mm 0,0 UV-I 0 W/m 10,1 C 8,6 C 16,1 km/h (3 Bft) 98,00 %
03.10.2016 03:32 10,9 C 95 % 1019,4 hPa 0,0 l/m 9,7 km/h (2 Bft) W-SW 258 0 min 0,000 mm 0,0 UV-I 0 W/m 10,1 C 8,8 C 16,1 km/h (3 Bft) 95,45 %
03.10.2016 03:34 10,9 C 95 % 1019,4 hPa 0,0 l/m 11,9 km/h (2 Bft) S-SW 211 0 min 0,000 mm 0,0 UV-I 0 W/m 10,1 C 7,6 C 19,3 km/h (3 Bft) 100,00 %
03.10.2016 03:36 10,9 C 95 % 1019,4 hPa 0,0 l/m 11,3 km/h (2 Bft) SW 225 0 min 0,000 mm 0,0 UV-I 0 W/m 10,1 C 7,9 C 16,1 km/h (3 Bft) 100,00 %
03.10.2016 03:38 10,9 C 95 % 1019,4 hPa 0,0 l/m 11,5 km/h (2 Bft) SW 226 0 min 0,000 mm 0,0 UV-I 0 W/m 10,1 C 7,8 C 16,1 km/h (3 Bft) 100,00 %
03.10.2016 03:40 10,9 C 95 % 1019,4 hPa 0,0 l/m 11,0 km/h (2 Bft) SW 218 0 min 0,000 mm 0,0 UV-I 0 W/m 10,1 C 8,1 C 14,5 km/h (3 Bft) 97,14 %
03.10.2016 03:42 10,9 C 95 % 1019,4 hPa 0,0 l/m 10,4 km/h (2 Bft) S-SW 213 0 min 0,000 mm 0,0 UV-I 0 W/m 10,1 C 8,4 C 17,7 km/h (3 Bft) 100,00 %
03.10.2016 03:44 10,9 C 95 % 1019,4 hPa 0,0 l/m 12,2 km/h (2 Bft) W-SW 238 0 min 0,000 mm 0,0 UV-I 0 W/m 10,1 C 7,5 C 16,1 km/h (3 Bft) 98,11 %
03.10.2016 03:46 10,9 C 94 % 1019,4 hPa 0,0 l/m 12,0 km/h (2 Bft) S-SW 202 0 min 0,000 mm 0,0 UV-I 0 W/m 10,0 C 7,6 C 16,1 km/h (3 Bft) 100,00 %
03.10.2016 03:48 10,8 C 94 % 1019,4 hPa 0,0 l/m 10,2 km/h (2 Bft) SW 222 0 min 0,000 mm 0,0 UV-I 0 W/m 9,9 C 8,4 C 14,5 km/h (3 Bft) 100,00 %
03.10.2016 03:50 10,8 C 94 % 1019,4 hPa 0,0 l/m 10,9 km/h (2 Bft) SW 224 0 min 0,000 mm 0,0 UV-I 0 W/m 9,9 C 8,0 C 16,1 km/h (3 Bft) 100,00 %
03.10.2016 03:52 10,8 C 94 % 1019,4 hPa 0,0 l/m 10,1 km/h (2 Bft) SW 217 0 min 0,000 mm 0,0 UV-I 0 W/m 9,9 C 8,4 C 14,5 km/h (3 Bft) 100,00 %
03.10.2016 03:54 10,8 C 95 % 1019,4 hPa 0,0 l/m 11,2 km/h (2 Bft) SW 231 0 min 0,000 mm 0,0 UV-I 0 W/m 10,0 C 7,8 C 16,1 km/h (3 Bft) 96,00 %
03.10.2016 03:56 10,8 C 95 % 1019,4 hPa 0,0 l/m 10,2 km/h (2 Bft) SW 232 0 min 0,000 mm 0,0 UV-I 0 W/m 10,0 C 8,4 C 17,7 km/h (3 Bft) 100,00 %
03.10.2016 03:58 10,8 C 95 % 1019,4 hPa 0,0 l/m 9,4 km/h (2 Bft) S-SW 211 0 min 0,000 mm 0,0 UV-I 0 W/m 10,0 C 8,8 C 12,9 km/h (3 Bft) 97,56 %
03.10.2016 04:00 10,8 C 95 % 1019,5 hPa 0,0 l/m 11,1 km/h (2 Bft) SW 228 0 min 0,000 mm 0,0 UV-I 0 W/m 10,0 C 7,9 C 14,5 km/h (3 Bft) 100,00 %
03.10.2016 04:02 10,8 C 95 % 1019,5 hPa 0,0 l/m 6,5 km/h (2 Bft) SW 215 0 min 0,000 mm 0,0 UV-I 0 W/m 10,0 C 10,8 C 9,7 km/h (2 Bft) 100,00 %
03.10.2016 04:04 10,7 C 95 % 1019,6 hPa 0,0 l/m 8,3 km/h (2 Bft) S-SW 202 0 min 0,000 mm 0,0 UV-I 0 W/m 9,9 C 9,4 C 12,9 km/h (3 Bft) 100,00 %
03.10.2016 04:06 10,8 C 95 % 1019,5 hPa 0,0 l/m 9,4 km/h (2 Bft) SW 224 0 min 0,000 mm 0,0 UV-I 0 W/m 10,0 C 8,8 C 12,9 km/h (3 Bft) 100,00 %
03.10.2016 04:08 10,8 C 95 % 1019,5 hPa 0,0 l/m 8,9 km/h (2 Bft) S-SW 205 0 min 0,000 mm 0,0 UV-I 0 W/m 10,0 C 9,1 C 16,1 km/h (3 Bft) 97,87 %
03.10.2016 04:10 10,8 C 95 % 1019,5 hPa 0,0 l/m 10,2 km/h (2 Bft) S-SW 205 0 min 0,000 mm 0,0 UV-I 0 W/m 10,0 C 8,4 C 17,7 km/h (3 Bft) 100,00 %
03.10.2016 04:12 10,8 C 95 % 1019,5 hPa 0,0 l/m 9,2 km/h (2 Bft) W-SW 242 0 min 0,000 mm 0,0 UV-I 0 W/m 10,0 C 8,9 C 14,5 km/h (3 Bft) 100,00 %
03.10.2016 04:14 10,8 C 95 % 1019,6 hPa 0,0 l/m 12,3 km/h (3 Bft) SW 223 0 min 0,000 mm 0,0 UV-I 0 W/m 10,0 C 7,3 C 19,3 km/h (3 Bft) 100,00 %
03.10.2016 04:16 10,8 C 95 % 1019,6 hPa 0,0 l/m 10,2 km/h (2 Bft) W-SW 245 0 min 0,000 mm 0,0 UV-I 0 W/m 10,0 C 8,4 C 17,7 km/h (3 Bft) 98,00 %
03.10.2016 04:18 10,8 C 95 % 1019,7 hPa 0,0 l/m 8,3 km/h (2 Bft) W 271 0 min 0,000 mm 0,0 UV-I 0 W/m 10,0 C 9,5 C 11,3 km/h (2 Bft) 100,00 %
03.10.2016 04:20 10,8 C 95 % 1019,7 hPa 0,0 l/m 12,2 km/h (2 Bft) SW 221 0 min 0,000 mm 0,0 UV-I 0 W/m 10,0 C 7,3 C 22,5 km/h (4 Bft) 100,00 %
03.10.2016 04:22 10,8 C 95 % 1019,7 hPa 0,0 l/m 10,1 km/h (2 Bft) SW 219 0 min 0,000 mm 0,0 UV-I 0 W/m 10,0 C 8,4 C 17,7 km/h (3 Bft) 100,00 %
03.10.2016 04:24 10,8 C 95 % 1019,7 hPa 0,0 l/m 10,0 km/h (2 Bft) SW 236 0 min 0,000 mm 0,0 UV-I 0 W/m 10,0 C 8,5 C 12,9 km/h (3 Bft) 100,00 %
03.10.2016 04:26 10,7 C 95 % 1019,7 hPa 0,0 l/m 9,5 km/h (2 Bft) SW 227 0 min 0,000 mm 0,0 UV-I 0 W/m 9,9 C 8,7 C 14,5 km/h (3 Bft) 100,00 %
03.10.2016 04:28 10,8 C 95 % 1019,7 hPa 0,0 l/m 9,5 km/h (2 Bft) W 263 0 min 0,000 mm 0,0 UV-I 0 W/m 10,0 C 8,8 C 14,5 km/h (3 Bft) 97,62 %
03.10.2016 04:30 10,8 C 95 % 1019,7 hPa 0,0 l/m 12,3 km/h (3 Bft) W-SW 244 0 min 0,000 mm 0,0 UV-I 0 W/m 10,0 C 7,3 C 19,3 km/h (3 Bft) 100,00 %
03.10.2016 04:32 10,8 C 95 % 1019,7 hPa 0,0 l/m 10,0 km/h (2 Bft) W-SW 242 0 min 0,000 mm 0,0 UV-I 0 W/m 10,0 C 8,5 C 17,7 km/h (3 Bft) 100,00 %
03.10.2016 04:34 10,8 C 95 % 1019,7 hPa 0,0 l/m 11,8 km/h (2 Bft) W-SW 245 0 min 0,000 mm 0,0 UV-I 0 W/m 10,0 C 7,5 C 16,1 km/h (3 Bft) 100,00 %
03.10.2016 04:36 10,8 C 95 % 1019,7 hPa 0,0 l/m 13,4 km/h (3 Bft) SW 229 0 min 0,000 mm 0,0 UV-I 0 W/m 10,0 C 6,8 C 17,7 km/h (3 Bft) 100,00 %
03.10.2016 04:38 10,8 C 95 % 1019,8 hPa 0,0 l/m 13,2 km/h (3 Bft) SW 226 0 min 0,000 mm 0,0 UV-I 0 W/m 10,0 C 6,9 C 17,7 km/h (3 Bft) 98,00 %
03.10.2016 04:40 10,8 C 95 % 1019,8 hPa 0,0 l/m 11,4 km/h (2 Bft) SW 233 0 min 0,000 mm 0,0 UV-I 0 W/m 10,0 C 7,7 C 16,1 km/h (3 Bft) 100,00 %
03.10.2016 04:42 10,8 C 95 % 1019,8 hPa 0,0 l/m 13,1 km/h (3 Bft) W 269 0 min 0,000 mm 0,0 UV-I 0 W/m 10,0 C 6,9 C 17,7 km/h (3 Bft) 100,00 %
03.10.2016 04:44 10,8 C 95 % 1019,8 hPa 0,0 l/m 10,4 km/h (2 Bft) W-SW 244 0 min 0,000 mm 0,0 UV-I 0 W/m 10,0 C 8,3 C 16,1 km/h (3 Bft) 100,00 %
03.10.2016 04:46 10,8 C 95 % 1019,8 hPa 0,0 l/m 10,8 km/h (2 Bft) SW 234 0 min 0,000 mm 0,0 UV-I 0 W/m 10,0 C 8,0 C 16,1 km/h (3 Bft) 100,00 %
03.10.2016 04:48 10,8 C 95 % 1019,9 hPa 0,0 l/m 11,7 km/h (2 Bft) W-SW 240 0 min 0,000 mm 0,0 UV-I 0 W/m 10,0 C 7,6 C 17,7 km/h (3 Bft) 100,00 %
03.10.2016 04:50 10,8 C 95 % 1019,9 hPa 0,0 l/m 12,1 km/h (2 Bft) W-SW 239 0 min 0,000 mm 0,0 UV-I 0 W/m 10,0 C 7,4 C 16,1 km/h (3 Bft) 100,00 %
03.10.2016 04:52 10,8 C 95 % 1019,9 hPa 0,0 l/m 11,9 km/h (2 Bft) S-SW 211 0 min 0,000 mm 0,0 UV-I 0 W/m 10,0 C 7,5 C 19,3 km/h (3 Bft) 97,87 %
03.10.2016 04:54 10,8 C 95 % 1019,9 hPa 0,0 l/m 12,6 km/h (3 Bft) W-SW 244 0 min 0,000 mm 0,0 UV-I 0 W/m 10,0 C 7,1 C 17,7 km/h (3 Bft) 95,74 %
03.10.2016 04:56 10,8 C 95 % 1019,9 hPa 0,0 l/m 9,9 km/h (2 Bft) SW 216 0 min 0,000 mm 0,0 UV-I 0 W/m 10,0 C 8,5 C 16,1 km/h (3 Bft) 98,00 %
03.10.2016 04:58 10,8 C 95 % 1019,9 hPa 0,0 l/m 10,5 km/h (2 Bft) SW 219 0 min 0,000 mm 0,0 UV-I 0 W/m 10,0 C 8,2 C 17,7 km/h (3 Bft) 98,11 %
03.10.2016 05:00 10,8 C 95 % 1019,9 hPa 0,0 l/m 12,8 km/h (3 Bft) SW 231 0 min 0,000 mm 0,0 UV-I 0 W/m 10,0 C 7,1 C 19,3 km/h (3 Bft) 97,73 %
03.10.2016 05:02 10,8 C 94 % 1019,9 hPa 0,0 l/m 10,1 km/h (2 Bft) SW 225 0 min 0,000 mm 0,0 UV-I 0 W/m 9,9 C 8,4 C 14,5 km/h (3 Bft) 96,67 %
03.10.2016 05:04 10,8 C 94 % 1019,9 hPa 0,0 l/m 8,2 km/h (2 Bft) W 261 0 min 0,000 mm 0,0 UV-I 0 W/m 9,9 C 9,6 C 12,9 km/h (3 Bft) 96,88 %
03.10.2016 05:06 10,7 C 94 % 1019,9 hPa 0,0 l/m 9,6 km/h (2 Bft) W-SW 255 0 min 0,000 mm 0,0 UV-I 0 W/m 9,8 C 8,6 C 16,1 km/h (3 Bft) 95,74 %
03.10.2016 05:08 10,7 C 94 % 1020,0 hPa 0,0 l/m 12,0 km/h (2 Bft) W-SW 244 0 min 0,000 mm 0,0 UV-I 0 W/m 9,8 C 7,3 C 17,7 km/h (3 Bft) 100,00 %
03.10.2016 05:10 10,7 C 94 % 1020,0 hPa 0,0 l/m 10,9 km/h (2 Bft) SW 232 0 min 0,000 mm 0,0 UV-I 0 W/m 9,8 C 7,9 C 16,1 km/h (3 Bft) 96,43 %
03.10.2016 05:12 10,7 C 94 % 1020,1 hPa 0,0 l/m 8,4 km/h (2 Bft) W-SW 250 0 min 0,000 mm 0,0 UV-I 0 W/m 9,8 C 9,3 C 14,5 km/h (3 Bft) 95,45 %
03.10.2016 05:14 10,7 C 94 % 1020,1 hPa 0,0 l/m 10,1 km/h (2 Bft) W 261 0 min 0,000 mm 0,0 UV-I 0 W/m 9,8 C 8,3 C 12,9 km/h (3 Bft) 97,37 %
03.10.2016 05:16 10,7 C 94 % 1020,1 hPa 0,0 l/m 9,0 km/h (2 Bft) SW 227 0 min 0,000 mm 0,0 UV-I 0 W/m 9,8 C 9,0 C 14,5 km/h (3 Bft) 98,11 %
03.10.2016 05:18 10,7 C 94 % 1020,1 hPa 0,0 l/m 7,6 km/h (2 Bft) W-SW 241 0 min 0,000 mm 0,0 UV-I 0 W/m 9,8 C 9,9 C 12,9 km/h (3 Bft) 98,00 %
03.10.2016 05:20 10,6 C 94 % 1020,0 hPa 0,0 l/m 9,0 km/h (2 Bft) W-SW 238 0 min 0,000 mm 0,0 UV-I 0 W/m 9,7 C 8,8 C 12,9 km/h (3 Bft) 95,74 %
03.10.2016 05:22 10,6 C 94 % 1020,1 hPa 0,0 l/m 9,5 km/h (2 Bft) W 267 0 min 0,000 mm 0,0 UV-I 0 W/m 9,7 C 8,5 C 14,5 km/h (3 Bft) 97,87 %
03.10.2016 05:24 10,6 C 94 % 1020,1 hPa 0,0 l/m 8,8 km/h (2 Bft) SW 231 0 min 0,000 mm 0,0 UV-I 0 W/m 9,7 C 9,0 C 12,9 km/h (3 Bft) 96,00 %
03.10.2016 05:26 10,6 C 94 % 1020,1 hPa 0,0 l/m 7,9 km/h (2 Bft) W-SW 246 0 min 0,000 mm 0,0 UV-I 0 W/m 9,7 C 9,5 C 14,5 km/h (3 Bft) 95,12 %
03.10.2016 05:28 10,5 C 94 % 1020,1 hPa 0,0 l/m 8,6 km/h (2 Bft) SW 229 0 min 0,000 mm 0,0 UV-I 0 W/m 9,6 C 9,0 C 14,5 km/h (3 Bft) 100,00 %
03.10.2016 05:30 10,5 C 94 % 1020,2 hPa 0,0 l/m 9,8 km/h (2 Bft) SW 231 0 min 0,000 mm 0,0 UV-I 0 W/m 9,6 C 8,3 C 14,5 km/h (3 Bft) 97,87 %
03.10.2016 05:32 10,5 C 94 % 1020,2 hPa 0,0 l/m 8,4 km/h (2 Bft) W-SW 242 0 min 0,000 mm 0,0 UV-I 0 W/m 9,6 C 9,1 C 14,5 km/h (3 Bft) 100,00 %
03.10.2016 05:34 10,4 C 94 % 1020,2 hPa 0,0 l/m 6,7 km/h (2 Bft) W-SW 244 0 min 0,000 mm 0,0 UV-I 0 W/m 9,5 C 10,2 C 12,9 km/h (3 Bft) 100,00 %
03.10.2016 05:36 10,4 C 94 % 1020,2 hPa 0,0 l/m 7,9 km/h (2 Bft) SW 222 0 min 0,000 mm 0,0 UV-I 0 W/m 9,5 C 9,3 C 11,3 km/h (2 Bft) 97,56 %
03.10.2016 05:38 10,4 C 94 % 1020,3 hPa 0,0 l/m 6,5 km/h (2 Bft) W-SW 250 0 min 0,000 mm 0,0 UV-I 0 W/m 9,5 C 10,4 C 11,3 km/h (2 Bft) 100,00 %
03.10.2016 05:40 10,4 C 94 % 1020,3 hPa 0,0 l/m 5,7 km/h (1 Bft) W-SW 244 0 min 0,000 mm 0,0 UV-I 0 W/m 9,5 C 10,4 C 8,0 km/h (2 Bft) 98,08 %
03.10.2016 05:42 10,4 C 94 % 1020,3 hPa 0,0 l/m 6,0 km/h (2 Bft) SW 236 0 min 0,000 mm 0,0 UV-I 0 W/m 9,5 C 10,4 C 9,7 km/h (2 Bft) 96,00 %
03.10.2016 05:44 10,3 C 94 % 1020,2 hPa 0,0 l/m 5,8 km/h (2 Bft) W-SW 239 0 min 0,000 mm 0,0 UV-I 0 W/m 9,4 C 10,3 C 11,3 km/h (2 Bft) 100,00 %
03.10.2016 05:46 10,3 C 94 % 1020,3 hPa 0,0 l/m 5,5 km/h (1 Bft) SW 218 0 min 0,000 mm 0,0 UV-I 0 W/m 9,4 C 10,3 C 9,7 km/h (2 Bft) 100,00 %
03.10.2016 05:48 10,3 C 94 % 1020,3 hPa 0,0 l/m 6,3 km/h (2 Bft) W 259 0 min 0,000 mm 0,0 UV-I 0 W/m 9,4 C 10,3 C 11,3 km/h (2 Bft) 100,00 %
03.10.2016 05:50 10,3 C 94 % 1020,3 hPa 0,0 l/m 6,1 km/h (2 Bft) SW 229 0 min 0,000 mm 0,0 UV-I 0 W/m 9,4 C 10,3 C 8,0 km/h (2 Bft) 100,00 %
03.10.2016 05:52 10,3 C 94 % 1020,3 hPa 0,0 l/m 6,6 km/h (2 Bft) W 259 0 min 0,000 mm 0,0 UV-I 0 W/m 9,4 C 10,2 C 11,3 km/h (2 Bft) 98,00 %
03.10.2016 05:54 10,3 C 94 % 1020,3 hPa 0,0 l/m 6,8 km/h (2 Bft) SW 234 0 min 0,000 mm 0,0 UV-I 0 W/m 9,4 C 10,0 C 9,7 km/h (2 Bft) 100,00 %
03.10.2016 05:56 10,3 C 94 % 1020,2 hPa 0,0 l/m 7,3 km/h (2 Bft) S-SW 209 0 min 0,000 mm 0,0 UV-I 0 W/m 9,4 C 9,7 C 12,9 km/h (3 Bft) 100,00 %
03.10.2016 05:58 10,3 C 94 % 1020,3 hPa 0,0 l/m 7,6 km/h (2 Bft) W-SW 244 0 min 0,000 mm 0,0 UV-I 0 W/m 9,4 C 9,4 C 12,9 km/h (3 Bft) 97,73 %
03.10.2016 06:00 10,3 C 94 % 1020,3 hPa 0,0 l/m 8,0 km/h (2 Bft) SW 223 0 min 0,000 mm 0,0 UV-I 0 W/m 9,4 C 9,2 C 12,9 km/h (3 Bft) 100,00 %
03.10.2016 06:02 10,3 C 94 % 1020,3 hPa 0,0 l/m 8,1 km/h (2 Bft) W-SW 240 0 min 0,000 mm 0,0 UV-I 0 W/m 9,4 C 9,1 C 12,9 km/h (3 Bft) 94,74 %
03.10.2016 06:04 10,3 C 94 % 1020,3 hPa 0,0 l/m 7,4 km/h (2 Bft) W-SW 257 0 min 0,000 mm 0,0 UV-I 0 W/m 9,4 C 9,6 C 11,3 km/h (2 Bft) 100,00 %
03.10.2016 06:06 10,3 C 94 % 1020,3 hPa 0,0 l/m 7,8 km/h (2 Bft) W-SW 248 0 min 0,000 mm 0,0 UV-I 0 W/m 9,4 C 9,3 C 11,3 km/h (2 Bft) 100,00 %
03.10.2016 06:08 10,3 C 94 % 1020,2 hPa 0,0 l/m 9,9 km/h (2 Bft) W-SW 242 0 min 0,000 mm 0,0 UV-I 0 W/m 9,4 C 8,0 C 16,1 km/h (3 Bft) 95,74 %
03.10.2016 06:10 10,3 C 94 % 1020,3 hPa 0,0 l/m 10,6 km/h (2 Bft) W-SW 254 0 min 0,000 mm 0,0 UV-I 0 W/m 9,4 C 7,6 C 16,1 km/h (3 Bft) 100,00 %
03.10.2016 06:12 10,3 C 94 % 1020,2 hPa 0,0 l/m 11,0 km/h (2 Bft) W-SW 246 0 min 0,000 mm 0,0 UV-I 0 W/m 9,4 C 7,4 C 16,1 km/h (3 Bft) 100,00 %
03.10.2016 06:14 10,3 C 94 % 1020,3 hPa 0,0 l/m 12,6 km/h (3 Bft) W-SW 248 0 min 0,000 mm 0,0 UV-I 0 W/m 9,4 C 6,6 C 17,7 km/h (3 Bft) 97,37 %
03.10.2016 06:16 10,3 C 94 % 1020,2 hPa 0,0 l/m 9,9 km/h (2 Bft) SW 236 0 min 0,000 mm 0,0 UV-I 0 W/m 9,4 C 8,0 C 14,5 km/h (3 Bft) 98,11 %
03.10.2016 06:18 10,3 C 94 % 1020,2 hPa 0,0 l/m 10,7 km/h (2 Bft) SW 225 0 min 0,000 mm 0,0 UV-I 0 W/m 9,4 C 7,5 C 17,7 km/h (3 Bft) 97,87 %
03.10.2016 06:20 10,3 C 94 % 1020,2 hPa 0,0 l/m 10,5 km/h (2 Bft) W 259 0 min 0,000 mm 0,0 UV-I 0 W/m 9,4 C 7,6 C 16,1 km/h (3 Bft) 100,00 %
03.10.2016 06:22 10,3 C 93 % 1020,2 hPa 0,0 l/m 12,2 km/h (2 Bft) SW 225 0 min 0,000 mm 0,0 UV-I 0 W/m 9,2 C 6,8 C 17,7 km/h (3 Bft) 98,00 %
03.10.2016 06:24 10,3 C 93 % 1020,2 hPa 0,0 l/m 10,2 km/h (2 Bft) S-SW 211 0 min 0,000 mm 0,0 UV-I 0 W/m 9,2 C 7,8 C 16,1 km/h (3 Bft) 100,00 %
03.10.2016 06:26 10,3 C 93 % 1020,1 hPa 0,0 l/m 13,0 km/h (3 Bft) SW 224 0 min 0,000 mm 0,0 UV-I 0 W/m 9,2 C 6,4 C 17,7 km/h (3 Bft) 100,00 %
03.10.2016 06:28 10,3 C 93 % 1020,2 hPa 0,0 l/m 11,3 km/h (2 Bft) SW 221 0 min 0,000 mm 0,0 UV-I 0 W/m 9,2 C 7,2 C 17,7 km/h (3 Bft) 100,00 %
03.10.2016 06:30 10,3 C 93 % 1020,2 hPa 0,0 l/m 12,2 km/h (2 Bft) SW 230 0 min 0,000 mm 0,0 UV-I 0 W/m 9,2 C 6,8 C 16,1 km/h (3 Bft) 100,00 %
03.10.2016 06:32 10,3 C 93 % 1020,2 hPa 0,0 l/m 12,3 km/h (3 Bft) SW 225 0 min 0,000 mm 0,0 UV-I 0 W/m 9,2 C 6,7 C 17,7 km/h (3 Bft) 100,00 %
03.10.2016 06:34 10,3 C 93 % 1020,3 hPa 0,0 l/m 10,9 km/h (2 Bft) SW 233 0 min 0,000 mm 0,0 UV-I 0 W/m 9,2 C 7,4 C 17,7 km/h (3 Bft) 100,00 %
03.10.2016 06:36 10,4 C 93 % 1020,3 hPa 0,0 l/m 11,8 km/h (2 Bft) W-SW 240 0 min 0,000 mm 0,0 UV-I 0 W/m 9,3 C 7,1 C 16,1 km/h (3 Bft) 100,00 %
03.10.2016 06:38 10,4 C 93 % 1020,3 hPa 0,0 l/m 9,7 km/h (2 Bft) W-SW 238 0 min 0,000 mm 0,0 UV-I 0 W/m 9,3 C 8,2 C 16,1 km/h (3 Bft) 100,00 %
03.10.2016 06:40 10,3 C 93 % 1020,3 hPa 0,0 l/m 9,9 km/h (2 Bft) W-SW 246 0 min 0,000 mm 0,0 UV-I 0 W/m 9,2 C 8,0 C 12,9 km/h (3 Bft) 100,00 %
03.10.2016 06:42 10,4 C 93 % 1020,4 hPa 0,0 l/m 9,4 km/h (2 Bft) W 259 0 min 0,000 mm 0,0 UV-I 0 W/m 9,3 C 8,4 C 14,5 km/h (3 Bft) 100,00 %
03.10.2016 06:44 10,4 C 93 % 1020,4 hPa 0,0 l/m 10,7 km/h (2 Bft) SW 230 0 min 0,000 mm 0,0 UV-I 0 W/m 9,3 C 7,6 C 16,1 km/h (3 Bft) 100,00 %
03.10.2016 06:46 10,4 C 93 % 1020,3 hPa 0,0 l/m 8,2 km/h (2 Bft) SW 227 0 min 0,000 mm 0,0 UV-I 0 W/m 9,3 C 9,1 C 12,9 km/h (3 Bft) 100,00 %
03.10.2016 06:48 10,3 C 93 % 1020,4 hPa 0,0 l/m 8,7 km/h (2 Bft) W-SW 250 0 min 0,000 mm 0,0 UV-I 0 W/m 9,2 C 8,7 C 14,5 km/h (3 Bft) 100,00 %
03.10.2016 06:50 10,3 C 93 % 1020,4 hPa 0,0 l/m 9,1 km/h (2 Bft) W-SW 247 0 min 0,000 mm 0,0 UV-I 0 W/m 9,2 C 8,5 C 12,9 km/h (3 Bft) 100,00 %
03.10.2016 06:52 10,4 C 93 % 1020,4 hPa 0,0 l/m 8,7 km/h (2 Bft) SW 228 0 min 0,000 mm 0,0 UV-I 0 W/m 9,3 C 8,8 C 14,5 km/h (3 Bft) 100,00 %
03.10.2016 06:54 10,4 C 93 % 1020,4 hPa 0,0 l/m 7,0 km/h (2 Bft) SW 226 0 min 0,000 mm 0,0 UV-I 0 W/m 9,3 C 10,0 C 12,9 km/h (3 Bft) 100,00 %
03.10.2016 06:56 10,4 C 93 % 1020,4 hPa 0,0 l/m 6,8 km/h (2 Bft) SW 214 0 min 0,000 mm 0,0 UV-I 0 W/m 9,3 C 10,1 C 9,7 km/h (2 Bft) 100,00 %
03.10.2016 06:58 10,4 C 93 % 1020,4 hPa 0,0 l/m 5,5 km/h (1 Bft) W 266 0 min 0,000 mm 0,0 UV-I 0 W/m 9,3 C 10,4 C 9,7 km/h (2 Bft) 100,00 %
03.10.2016 07:00 10,4 C 92 % 1020,5 hPa 0,0 l/m 6,3 km/h (2 Bft) W 271 0 min 0,000 mm 0,0 UV-I 0 W/m 9,2 C 10,4 C 12,9 km/h (3 Bft) 97,78 %
03.10.2016 07:02 10,4 C 93 % 1020,5 hPa 0,0 l/m 5,9 km/h (2 Bft) W-SW 240 0 min 0,000 mm 0,0 UV-I 0 W/m 9,3 C 10,4 C 8,0 km/h (2 Bft) 97,87 %
03.10.2016 07:04 10,3 C 93 % 1020,5 hPa 0,0 l/m 6,5 km/h (2 Bft) W-SW 238 0 min 0,000 mm 0,0 UV-I 0 W/m 9,2 C 10,3 C 11,3 km/h (2 Bft) 98,11 %
03.10.2016 07:06 10,3 C 93 % 1020,5 hPa 0,0 l/m 9,3 km/h (2 Bft) W 269 0 min 0,000 mm 0,0 UV-I 0 W/m 9,2 C 8,3 C 14,5 km/h (3 Bft) 97,56 %
03.10.2016 07:08 10,3 C 92 % 1020,5 hPa 0,0 l/m 8,4 km/h (2 Bft) W-SW 246 0 min 0,000 mm 0,0 UV-I 0 W/m 9,1 C 8,9 C 12,9 km/h (3 Bft) 98,00 %
03.10.2016 07:10 10,3 C 92 % 1020,6 hPa 0,0 l/m 7,4 km/h (2 Bft) W-SW 249 0 min 0,000 mm 0,0 UV-I 0 W/m 9,1 C 9,6 C 12,9 km/h (3 Bft) 96,23 %
03.10.2016 07:12 10,3 C 92 % 1020,6 hPa 0,0 l/m 6,6 km/h (2 Bft) W-SW 255 0 min 0,000 mm 0,0 UV-I 0 W/m 9,1 C 10,2 C 9,7 km/h (2 Bft) 91,43 %
03.10.2016 07:14 10,3 C 92 % 1020,6 hPa 0,0 l/m 7,0 km/h (2 Bft) SW 218 0 min 0,000 mm 0,0 UV-I 0 W/m 9,1 C 9,9 C 12,9 km/h (3 Bft) 98,21 %
03.10.2016 07:16 10,3 C 92 % 1020,7 hPa 0,0 l/m 6,9 km/h (2 Bft) W-SW 244 0 min 0,000 mm 0,0 UV-I 4 W/m 9,1 C 9,9 C 12,9 km/h (3 Bft) 97,87 %
03.10.2016 07:18 10,3 C 92 % 1020,6 hPa 0,0 l/m 7,2 km/h (2 Bft) S-SW 211 0 min 0,000 mm 0,0 UV-I 5 W/m 9,1 C 9,7 C 11,3 km/h (2 Bft) 95,74 %
03.10.2016 07:20 10,3 C 92 % 1020,6 hPa 0,0 l/m 6,8 km/h (2 Bft) S-SW 203 0 min 0,000 mm 0,0 UV-I 5 W/m 9,1 C 10,0 C 9,7 km/h (2 Bft) 94,00 %
03.10.2016 07:22 10,3 C 92 % 1020,6 hPa 0,0 l/m 7,3 km/h (2 Bft) W-SW 240 0 min 0,000 mm 0,0 UV-I 5 W/m 9,1 C 9,7 C 11,3 km/h (2 Bft) 97,56 %
03.10.2016 07:24 10,3 C 92 % 1020,6 hPa 0,0 l/m 8,5 km/h (2 Bft) SW 235 0 min 0,000 mm 0,0 UV-I 5 W/m 9,1 C 8,8 C 11,3 km/h (2 Bft) 92,68 %
03.10.2016 07:26 10,3 C 92 % 1020,7 hPa 0,0 l/m 7,8 km/h (2 Bft) SW 223 0 min 0,000 mm 0,0 UV-I 5 W/m 9,1 C 9,3 C 12,9 km/h (3 Bft) 94,34 %
03.10.2016 07:28 10,3 C 92 % 1020,7 hPa 0,0 l/m 7,5 km/h (2 Bft) SW 227 0 min 0,000 mm 0,0 UV-I 5 W/m 9,1 C 9,5 C 12,9 km/h (3 Bft) 95,12 %
03.10.2016 07:30 10,3 C 92 % 1020,8 hPa 0,0 l/m 7,4 km/h (2 Bft) SW 236 0 min 0,000 mm 0,0 UV-I 5 W/m 9,1 C 9,6 C 12,9 km/h (3 Bft) 96,43 %
03.10.2016 07:32 10,3 C 92 % 1020,7 hPa 0,0 l/m 8,2 km/h (2 Bft) SW 215 0 min 0,000 mm 0,0 UV-I 5 W/m 9,1 C 9,0 C 12,9 km/h (3 Bft) 97,37 %
03.10.2016 07:34 10,3 C 91 % 1020,7 hPa 0,0 l/m 8,5 km/h (2 Bft) SW 215 0 min 0,000 mm 0,0 UV-I 5 W/m 8,9 C 8,8 C 12,9 km/h (3 Bft) 96,00 %
03.10.2016 07:36 10,3 C 91 % 1020,8 hPa 0,0 l/m 8,0 km/h (2 Bft) S-SW 209 0 min 0,000 mm 0,0 UV-I 7 W/m 8,9 C 9,2 C 11,3 km/h (2 Bft) 100,00 %
03.10.2016 07:38 10,3 C 91 % 1020,8 hPa 0,0 l/m 8,2 km/h (2 Bft) W-SW 243 0 min 0,000 mm 0,0 UV-I 7 W/m 8,9 C 9,0 C 12,9 km/h (3 Bft) 100,00 %
03.10.2016 07:40 10,3 C 91 % 1020,8 hPa 0,0 l/m 9,4 km/h (2 Bft) W-SW 246 0 min 0,000 mm 0,0 UV-I 9 W/m 8,9 C 8,3 C 12,9 km/h (3 Bft) 100,00 %
03.10.2016 07:42 10,3 C 91 % 1020,9 hPa 0,0 l/m 9,6 km/h (2 Bft) W-SW 240 0 min 0,000 mm 0,0 UV-I 11 W/m 8,9 C 8,2 C 14,5 km/h (3 Bft) 96,36 %
03.10.2016 07:44 10,4 C 91 % 1020,9 hPa 0,0 l/m 9,6 km/h (2 Bft) SW 221 0 min 0,000 mm 0,0 UV-I 12 W/m 9,0 C 8,3 C 16,1 km/h (3 Bft) 100,00 %
03.10.2016 07:46 10,4 C 90 % 1020,9 hPa 0,0 l/m 10,4 km/h (2 Bft) SW 234 0 min 0,000 mm 0,0 UV-I 14 W/m 8,8 C 7,8 C 17,7 km/h (3 Bft) 100,00 %
03.10.2016 07:48 10,4 C 90 % 1020,9 hPa 0,0 l/m 11,3 km/h (2 Bft) SW 220 0 min 0,000 mm 0,0 UV-I 15 W/m 8,8 C 7,3 C 19,3 km/h (3 Bft) 100,00 %
03.10.2016 07:50 10,5 C 89 % 1020,9 hPa 0,0 l/m 11,4 km/h (2 Bft) SW 223 0 min 0,000 mm 0,0 UV-I 22 W/m 8,8 C 7,4 C 16,1 km/h (3 Bft) 100,00 %
03.10.2016 07:52 10,6 C 89 % 1020,9 hPa 0,0 l/m 11,4 km/h (2 Bft) W-SW 244 0 min 0,000 mm 0,0 UV-I 30 W/m 8,9 C 7,5 C 16,1 km/h (3 Bft) 100,00 %
03.10.2016 07:54 10,6 C 89 % 1021,0 hPa 0,0 l/m 9,9 km/h (2 Bft) SW 225 0 min 0,000 mm 0,0 UV-I 34 W/m 8,9 C 8,3 C 12,9 km/h (3 Bft) 100,00 %
03.10.2016 07:56 10,7 C 89 % 1021,0 hPa 0,0 l/m 12,1 km/h (2 Bft) SW 230 0 min 0,000 mm 0,0 UV-I 32 W/m 9,0 C 7,3 C 19,3 km/h (3 Bft) 98,00 %
03.10.2016 07:58 10,7 C 89 % 1020,9 hPa 0,0 l/m 11,8 km/h (2 Bft) S-SW 213 0 min 0,000 mm 0,0 UV-I 35 W/m 9,0 C 7,4 C 14,5 km/h (3 Bft) 100,00 %
03.10.2016 08:00 10,7 C 89 % 1021,0 hPa 0,0 l/m 7,5 km/h (2 Bft) SW 218 0 min 0,025 mm 0,0 UV-I 39 W/m 9,0 C 9,9 C 12,9 km/h (3 Bft) 100,00 %
03.10.2016 08:02 10,7 C 89 % 1021,0 hPa 0,0 l/m 10,4 km/h (2 Bft) SW 223 0 min 0,000 mm 0,0 UV-I 44 W/m 9,0 C 8,1 C 12,9 km/h (3 Bft) 100,00 %
03.10.2016 08:04 10,7 C 89 % 1021,0 hPa 0,0 l/m 9,5 km/h (2 Bft) W-SW 246 0 min 0,000 mm 0,0 UV-I 51 W/m 9,0 C 8,7 C 14,5 km/h (3 Bft) 97,87 %
03.10.2016 08:06 10,7 C 89 % 1021,0 hPa 0,0 l/m 8,9 km/h (2 Bft) S-SW 213 0 min 0,000 mm 0,0 UV-I 53 W/m 9,0 C 9,0 C 14,5 km/h (3 Bft) 100,00 %
03.10.2016 08:08 10,6 C 89 % 1021,0 hPa 0,0 l/m 8,2 km/h (2 Bft) S-SW 208 0 min 0,000 mm 0,0 UV-I 55 W/m 8,9 C 9,4 C 16,1 km/h (3 Bft) 100,00 %
03.10.2016 08:10 10,6 C 89 % 1021,0 hPa 0,0 l/m 10,9 km/h (2 Bft) W-SW 242 0 min 0,000 mm 0,0 UV-I 62 W/m 8,9 C 7,8 C 19,3 km/h (3 Bft) 100,00 %
03.10.2016 08:12 10,6 C 89 % 1021,0 hPa 0,0 l/m 10,4 km/h (2 Bft) SW 226 0 min 0,000 mm 0,0 UV-I 70 W/m 8,9 C 8,0 C 14,5 km/h (3 Bft) 98,21 %
03.10.2016 08:14 10,7 C 89 % 1021,0 hPa 0,0 l/m 10,1 km/h (2 Bft) SW 233 0 min 0,000 mm 0,0 UV-I 70 W/m 9,0 C 8,3 C 14,5 km/h (3 Bft) 100,00 %
03.10.2016 08:16 10,7 C 90 % 1021,0 hPa 0,0 l/m 11,4 km/h (2 Bft) W-SW 238 0 min 0,000 mm 0,0 UV-I 66 W/m 9,1 C 7,6 C 16,1 km/h (3 Bft) 100,00 %
03.10.2016 08:18 10,7 C 89 % 1021,0 hPa 0,0 l/m 12,2 km/h (2 Bft) W-SW 242 0 min 0,000 mm 0,0 UV-I 65 W/m 9,0 C 7,2 C 17,7 km/h (3 Bft) 100,00 %
03.10.2016 08:20 10,7 C 89 % 1021,1 hPa 0,0 l/m 12,4 km/h (3 Bft) W-SW 238 0 min 0,000 mm 0,0 UV-I 70 W/m 9,0 C 7,1 C 17,7 km/h (3 Bft) 100,00 %
03.10.2016 08:22 10,7 C 89 % 1021,0 hPa 0,0 l/m 14,0 km/h (3 Bft) SW 226 0 min 0,000 mm 0,0 UV-I 75 W/m 9,0 C 6,4 C 19,3 km/h (3 Bft) 100,00 %
03.10.2016 08:24 10,8 C 89 % 1021,0 hPa 0,0 l/m 9,7 km/h (2 Bft) W-SW 245 0 min 0,000 mm 0,0 UV-I 76 W/m 9,1 C 8,6 C 16,1 km/h (3 Bft) 98,11 %
03.10.2016 08:26 10,8 C 88 % 1021,0 hPa 0,0 l/m 10,3 km/h (2 Bft) SW 214 0 min 0,000 mm 0,0 UV-I 69 W/m 8,9 C 8,3 C 17,7 km/h (3 Bft) 98,00 %
03.10.2016 08:28 10,8 C 88 % 1021,0 hPa 0,0 l/m 11,9 km/h (2 Bft) SW 226 0 min 0,000 mm 0,0 UV-I 56 W/m 8,9 C 7,5 C 17,7 km/h (3 Bft) 100,00 %
03.10.2016 08:30 10,8 C 88 % 1021,1 hPa 0,0 l/m 10,3 km/h (2 Bft) SW 225 0 min 0,000 mm 0,0 UV-I 53 W/m 8,9 C 8,3 C 19,3 km/h (3 Bft) 100,00 %
03.10.2016 08:32 10,8 C 88 % 1021,2 hPa 0,0 l/m 12,3 km/h (3 Bft) W-SW 254 0 min 0,000 mm 0,0 UV-I 55 W/m 8,9 C 7,3 C 19,3 km/h (3 Bft) 97,87 %
03.10.2016 08:34 10,8 C 88 % 1021,2 hPa 0,0 l/m 10,5 km/h (2 Bft) SW 223 0 min 0,000 mm 0,0 UV-I 61 W/m 8,9 C 8,2 C 14,5 km/h (3 Bft) 100,00 %
03.10.2016 08:36 10,7 C 88 % 1021,2 hPa 0,0 l/m 12,5 km/h (3 Bft) SW 223 0 min 0,000 mm 0,0 UV-I 67 W/m 8,8 C 7,1 C 17,7 km/h (3 Bft) 97,87 %
03.10.2016 08:38 10,7 C 89 % 1021,3 hPa 0,0 l/m 9,2 km/h (2 Bft) SW 216 0 min 0,000 mm 0,0 UV-I 73 W/m 9,0 C 8,8 C 16,1 km/h (3 Bft) 97,56 %
03.10.2016 08:40 10,7 C 88 % 1021,3 hPa 0,0 l/m 8,9 km/h (2 Bft) SW 220 0 min 0,000 mm 0,0 UV-I 79 W/m 8,8 C 9,0 C 12,9 km/h (3 Bft) 98,00 %
03.10.2016 08:42 10,7 C 89 % 1021,3 hPa 0,0 l/m 12,3 km/h (3 Bft) SW 231 0 min 0,000 mm 0,0 UV-I 81 W/m 9,0 C 7,2 C 20,9 km/h (4 Bft) 100,00 %
03.10.2016 08:44 10,7 C 89 % 1021,3 hPa 0,0 l/m 12,8 km/h (3 Bft) W 261 0 min 0,000 mm 0,0 UV-I 90 W/m 9,0 C 6,9 C 22,5 km/h (4 Bft) 98,00 %
03.10.2016 08:46 10,7 C 89 % 1021,3 hPa 0,0 l/m 12,6 km/h (3 Bft) SW 216 0 min 0,000 mm 0,0 UV-I 96 W/m 9,0 C 7,0 C 19,3 km/h (3 Bft) 100,00 %
03.10.2016 08:48 10,7 C 89 % 1021,4 hPa 0,0 l/m 13,1 km/h (3 Bft) SW 217 0 min 0,000 mm 0,0 UV-I 94 W/m 9,0 C 6,8 C 19,3 km/h (3 Bft) 100,00 %
03.10.2016 08:50 10,7 C 89 % 1021,4 hPa 0,0 l/m 10,2 km/h (2 Bft) W 259 0 min 0,000 mm 0,0 UV-I 93 W/m 9,0 C 8,3 C 16,1 km/h (3 Bft) 100,00 %
03.10.2016 08:52 10,7 C 89 % 1021,5 hPa 0,0 l/m 12,8 km/h (3 Bft) SW 234 0 min 0,000 mm 0,0 UV-I 97 W/m 9,0 C 6,9 C 17,7 km/h (3 Bft) 100,00 %
03.10.2016 08:54 10,7 C 89 % 1021,5 hPa 0,0 l/m 12,0 km/h (2 Bft) S-SW 209 0 min 0,000 mm 0,0 UV-I 101 W/m 9,0 C 7,3 C 16,1 km/h (3 Bft) 100,00 %
03.10.2016 08:56 10,7 C 88 % 1021,5 hPa 0,0 l/m 12,2 km/h (2 Bft) S-SW 211 0 min 0,000 mm 0,0 UV-I 101 W/m 8,8 C 7,2 C 16,1 km/h (3 Bft) 97,73 %
03.10.2016 09:00 10,7 C 88 % 1021,4 hPa 0,0 l/m 10,2 km/h (2 Bft) W-SW 238 0 min 0,051 mm 0,0 UV-I 96 W/m 8,8 C 8,3 C 12,9 km/h (3 Bft) 98,95 %
03.10.2016 09:02 10,7 C 89 % 1021,5 hPa 0,0 l/m 12,7 km/h (3 Bft) W 264 0 min 0,000 mm 0,0 UV-I 90 W/m 9,0 C 7,0 C 17,7 km/h (3 Bft) 100,00 %
03.10.2016 09:04 10,7 C 88 % 1021,5 hPa 0,0 l/m 10,4 km/h (2 Bft) W-SW 248 0 min 0,000 mm 0,0 UV-I 89 W/m 8,8 C 8,1 C 16,1 km/h (3 Bft) 97,56 %
03.10.2016 09:06 10,7 C 88 % 1021,5 hPa 0,0 l/m 10,2 km/h (2 Bft) SW 223 0 min 0,000 mm 0,0 UV-I 91 W/m 8,8 C 8,3 C 20,9 km/h (4 Bft) 96,23 %
03.10.2016 09:08 10,7 C 88 % 1021,5 hPa 0,0 l/m 12,9 km/h (3 Bft) W-SW 245 0 min 0,000 mm 0,0 UV-I 91 W/m 8,8 C 6,9 C 16,1 km/h (3 Bft) 97,62 %
03.10.2016 09:10 10,7 C 88 % 1021,6 hPa 0,0 l/m 12,5 km/h (3 Bft) S-SW 213 0 min 0,000 mm 0,0 UV-I 92 W/m 8,8 C 7,1 C 19,3 km/h (3 Bft) 90,38 %
03.10.2016 09:12 10,7 C 88 % 1021,5 hPa 0,0 l/m 13,9 km/h (3 Bft) SW 236 0 min 0,000 mm 0,0 UV-I 95 W/m 8,8 C 6,4 C 22,5 km/h (4 Bft) 97,92 %
03.10.2016 09:16 10,7 C 89 % 1021,6 hPa 0,0 l/m 10,2 km/h (2 Bft) W-SW 250 0 min 0,000 mm 0,0 UV-I 83 W/m 9,0 C 8,3 C 17,7 km/h (3 Bft) 97,83 %
03.10.2016 09:18 10,7 C 88 % 1021,6 hPa 0,0 l/m 12,1 km/h (2 Bft) SW 235 0 min 0,000 mm 0,0 UV-I 85 W/m 8,8 C 7,3 C 16,1 km/h (3 Bft) 97,37 %
03.10.2016 09:20 10,8 C 88 % 1021,7 hPa 0,0 l/m 12,3 km/h (3 Bft) W-SW 244 0 min 0,000 mm 0,0 UV-I 89 W/m 8,9 C 7,3 C 19,3 km/h (3 Bft) 97,87 %
03.10.2016 09:22 10,8 C 88 % 1021,7 hPa 0,0 l/m 12,0 km/h (2 Bft) SW 234 0 min 0,000 mm 0,0 UV-I 79 W/m 8,9 C 7,4 C 20,9 km/h (4 Bft) 98,11 %
03.10.2016 09:24 10,8 C 87 % 1021,7 hPa 0,0 l/m 17,5 km/h (3 Bft) W-SW 254 0 min 0,000 mm 0,0 UV-I 67 W/m 8,7 C 5,2 C 30,6 km/h (5 Bft) 95,45 %
03.10.2016 09:26 10,8 C 87 % 1021,7 hPa 0,0 l/m 11,8 km/h (2 Bft) W-SW 257 0 min 0,000 mm 0,0 UV-I 58 W/m 8,7 C 7,5 C 17,7 km/h (3 Bft) 96,30 %
03.10.2016 09:28 10,8 C 88 % 1021,7 hPa 0,0 l/m 13,7 km/h (3 Bft) W-SW 256 0 min 0,000 mm 0,0 UV-I 55 W/m 8,9 C 6,7 C 20,9 km/h (4 Bft) 97,14 %
03.10.2016 09:30 10,8 C 87 % 1021,7 hPa 0,0 l/m 14,4 km/h (3 Bft) W-SW 237 0 min 0,000 mm 0,0 UV-I 57 W/m 8,7 C 6,4 C 22,5 km/h (4 Bft) 95,12 %
03.10.2016 09:32 10,8 C 88 % 1021,8 hPa 0,0 l/m 10,6 km/h (2 Bft) W-SW 240 0 min 0,000 mm 0,0 UV-I 52 W/m 8,9 C 8,2 C 16,1 km/h (3 Bft) 96,23 %
03.10.2016 09:34 10,8 C 88 % 1021,8 hPa 0,0 l/m 13,4 km/h (3 Bft) W 268 0 min 0,000 mm 0,0 UV-I 48 W/m 8,9 C 6,8 C 24,1 km/h (4 Bft) 97,37 %
03.10.2016 09:36 10,8 C 88 % 1021,8 hPa 0,0 l/m 15,2 km/h (3 Bft) W-SW 257 0 min 0,000 mm 0,0 UV-I 44 W/m 8,9 C 6,0 C 20,9 km/h (4 Bft) 98,00 %
03.10.2016 09:39 10,7 C 88 % 1021,8 hPa 0,0 l/m 16,4 km/h (3 Bft) W-NW 288 0 min 0,000 mm 0,0 UV-I 38 W/m 8,8 C 5,4 C 24,1 km/h (4 Bft) 97,06 %
03.10.2016 09:40 10,6 C 88 % 1021,8 hPa 0,0 l/m 16,2 km/h (3 Bft) SW 228 0 min 0,000 mm 0,0 UV-I 33 W/m 8,7 C 5,4 C 22,5 km/h (4 Bft) 100,00 %
03.10.2016 09:42 10,5 C 89 % 1021,9 hPa 0,0 l/m 13,0 km/h (3 Bft) W 261 0 min 0,000 mm 0,0 UV-I 36 W/m 8,8 C 6,6 C 17,7 km/h (3 Bft) 100,00 %
03.10.2016 09:44 10,4 C 90 % 1022,0 hPa 0,2 l/m 14,0 km/h (3 Bft) W-SW 257 0 min 0,000 mm 0,0 UV-I 35 W/m 8,8 C 6,0 C 22,5 km/h (4 Bft) 97,37 %
03.10.2016 09:46 10,3 C 90 % 1022,0 hPa 0,0 l/m 13,4 km/h (3 Bft) W 266 0 min 0,000 mm 0,0 UV-I 31 W/m 8,7 C 6,2 C 19,3 km/h (3 Bft) 96,23 %
03.10.2016 09:48 10,3 C 91 % 1022,0 hPa 0,0 l/m 12,5 km/h (3 Bft) W-SW 254 0 min 0,000 mm 0,0 UV-I 30 W/m 8,9 C 6,6 C 22,5 km/h (4 Bft) 100,00 %
03.10.2016 09:50 10,2 C 91 % 1022,0 hPa 0,0 l/m 10,2 km/h (2 Bft) SW 235 0 min 0,000 mm 0,0 UV-I 28 W/m 8,8 C 7,7 C 16,1 km/h (3 Bft) 100,00 %
03.10.2016 09:52 10,1 C 92 % 1022,0 hPa 0,0 l/m 12,3 km/h (3 Bft) W-SW 250 0 min 0,000 mm 0,0 UV-I 30 W/m 8,9 C 6,5 C 17,7 km/h (3 Bft) 100,00 %
03.10.2016 09:54 10,1 C 92 % 1022,0 hPa 0,0 l/m 14,0 km/h (3 Bft) W-SW 250 0 min 0,000 mm 0,0 UV-I 28 W/m 8,9 C 5,7 C 22,5 km/h (4 Bft) 100,00 %
03.10.2016 09:56 9,9 C 92 % 1022,0 hPa 0,0 l/m 14,7 km/h (3 Bft) SW 214 0 min 0,000 mm 0,0 UV-I 26 W/m 8,7 C 5,1 C 20,9 km/h (4 Bft) 100,00 %
03.10.2016 09:58 9,9 C 92 % 1022,1 hPa 0,0 l/m 16,4 km/h (3 Bft) W 263 0 min 0,000 mm 0,0 UV-I 26 W/m 8,7 C 4,4 C 24,1 km/h (4 Bft) 98,00 %
03.10.2016 10:00 9,9 C 93 % 1022,1 hPa 0,0 l/m 12,9 km/h (3 Bft) W-SW 247 0 min 0,051 mm 0,0 UV-I 29 W/m 8,8 C 6,0 C 24,1 km/h (4 Bft) 95,61 %
03.10.2016 10:05 9,8 C 93 % 1022,1 hPa 0,0 l/m 9,7 km/h (2 Bft) SW 225 0 min 0,000 mm 0,0 UV-I 47 W/m 8,7 C 7,6 C 17,7 km/h (3 Bft) 97,37 %
03.10.2016 10:10 9,9 C 93 % 1022,1 hPa 0,2 l/m 11,3 km/h (2 Bft) W-SW 247 0 min 0,000 mm 0,0 UV-I 51 W/m 8,8 C 6,8 C 20,9 km/h (4 Bft) 98,25 %
03.10.2016 10:15 10,0 C 93 % 1022,1 hPa 0,0 l/m 12,9 km/h (3 Bft) SW 225 0 min 0,000 mm 0,0 UV-I 46 W/m 8,9 C 6,1 C 22,5 km/h (4 Bft) 98,25 %
03.10.2016 10:20 10,1 C 93 % 1022,1 hPa 0,0 l/m 11,3 km/h (2 Bft) SW 225 0 min 0,000 mm 0,0 UV-I 69 W/m 9,0 C 7,0 C 24,1 km/h (4 Bft) 100,00 %
03.10.2016 10:25 10,1 C 93 % 1022,1 hPa 0,0 l/m 11,3 km/h (2 Bft) W-SW 247 0 min 0,000 mm 0,1 UV-I 90 W/m 9,0 C 7,0 C 20,9 km/h (4 Bft) 100,00 %
03.10.2016 10:28 10,2 C 94 % 1022,1 hPa 0,0 l/m 14,4 km/h (3 Bft) W-SW 256 0 min 0,000 mm 0,5 UV-I 118 W/m 9,3 C 5,6 C 17,7 km/h (3 Bft) 97,67 %
03.10.2016 10:31 10,2 C 93 % 1022,2 hPa 0,0 l/m 10,6 km/h (2 Bft) W-SW 246 0 min 0,000 mm 0,1 UV-I 95 W/m 9,1 C 7,5 C 16,1 km/h (3 Bft) 98,53 %
03.10.2016 10:32 10,2 C 93 % 1022,2 hPa 0,0 l/m 8,4 km/h (2 Bft) SW 222 0 min 0,000 mm 0,5 UV-I 96 W/m 9,1 C 8,8 C 11,3 km/h (2 Bft) 96,55 %
03.10.2016 10:34 10,3 C 93 % 1022,1 hPa 0,0 l/m 10,4 km/h (2 Bft) SW 235 0 min 0,000 mm 0,5 UV-I 106 W/m 9,2 C 7,7 C 19,3 km/h (3 Bft) 100,00 %
03.10.2016 10:35 10,3 C 93 % 1022,1 hPa 0,0 l/m 11,3 km/h (2 Bft) SW 225 0 min 0,000 mm 0,5 UV-I 105 W/m 9,2 C 7,2 C 19,3 km/h (3 Bft) 100,00 %
03.10.2016 10:40 10,4 C 93 % 1022,1 hPa 0,0 l/m 11,3 km/h (2 Bft) W-SW 247 0 min 0,000 mm 0,6 UV-I 111 W/m 9,3 C 7,3 C 22,5 km/h (4 Bft) 100,00 %
03.10.2016 10:42 10,4 C 93 % 1022,2 hPa 0,0 l/m 13,1 km/h (3 Bft) SW 223 0 min 0,000 mm 0,7 UV-I 118 W/m 9,3 C 6,4 C 19,3 km/h (3 Bft) 99,46 %
03.10.2016 10:44 10,4 C 93 % 1022,2 hPa 0,0 l/m 12,6 km/h (3 Bft) SW 230 0 min 0,000 mm 0,6 UV-I 100 W/m 9,3 C 6,7 C 16,1 km/h (3 Bft) 98,00 %
03.10.2016 10:46 10,4 C 93 % 1022,2 hPa 0,0 l/m 14,1 km/h (3 Bft) W-SW 250 0 min 0,000 mm 0,5 UV-I 82 W/m 9,3 C 6,0 C 19,3 km/h (3 Bft) 98,11 %
03.10.2016 10:48 10,4 C 93 % 1022,2 hPa 0,0 l/m 12,5 km/h (3 Bft) W-SW 242 0 min 0,000 mm 0,5 UV-I 100 W/m 9,3 C 6,7 C 20,9 km/h (4 Bft) 100,00 %
03.10.2016 10:50 10,4 C 93 % 1022,2 hPa 0,0 l/m 12,6 km/h (3 Bft) O-SO 122 0 min 0,000 mm 0,5 UV-I 96 W/m 9,3 C 6,7 C 16,1 km/h (3 Bft) 100,00 %
03.10.2016 10:52 10,5 C 93 % 1022,2 hPa 0,0 l/m 15,9 km/h (3 Bft) W-SW 243 0 min 0,000 mm 0,6 UV-I 117 W/m 9,4 C 5,4 C 22,5 km/h (4 Bft) 98,21 %
03.10.2016 10:54 10,5 C 93 % 1022,2 hPa 0,0 l/m 15,6 km/h (3 Bft) SW 227 0 min 0,000 mm 0,6 UV-I 113 W/m 9,4 C 5,5 C 20,9 km/h (4 Bft) 97,87 %
03.10.2016 10:56 10,5 C 92 % 1022,2 hPa 0,0 l/m 14,2 km/h (3 Bft) SW 228 0 min 0,000 mm 0,7 UV-I 126 W/m 9,3 C 6,1 C 24,1 km/h (4 Bft) 97,87 %
03.10.2016 10:58 10,6 C 93 % 1022,2 hPa 0,0 l/m 14,0 km/h (3 Bft) SW 233 0 min 0,000 mm 0,6 UV-I 125 W/m 9,5 C 6,3 C 20,9 km/h (4 Bft) 98,00 %
03.10.2016 11:00 10,6 C 93 % 1022,2 hPa 0,0 l/m 11,0 km/h (2 Bft) W-SW 244 0 min 0,051 mm 0,7 UV-I 134 W/m 9,5 C 7,7 C 16,1 km/h (3 Bft) 100,00 %
03.10.2016 11:02 10,7 C 93 % 1022,2 hPa 0,0 l/m 11,9 km/h (2 Bft) SW 229 0 min 0,000 mm 0,7 UV-I 140 W/m 9,6 C 7,4 C 20,9 km/h (4 Bft) 100,00 %
03.10.2016 11:04 10,8 C 93 % 1022,2 hPa 0,0 l/m 11,9 km/h (2 Bft) SW 224 0 min 0,000 mm 0,8 UV-I 156 W/m 9,7 C 7,5 C 17,7 km/h (3 Bft) 97,56 %
03.10.2016 11:06 10,8 C 93 % 1022,2 hPa 0,0 l/m 12,1 km/h (2 Bft) W 267 0 min 0,000 mm 0,8 UV-I 154 W/m 9,7 C 7,4 C 20,9 km/h (4 Bft) 97,87 %
03.10.2016 11:08 10,9 C 93 % 1022,2 hPa 0,0 l/m 12,4 km/h (3 Bft) SW 223 0 min 0,000 mm 0,9 UV-I 173 W/m 9,8 C 7,4 C 19,3 km/h (3 Bft) 97,87 %
03.10.2016 11:10 10,9 C 92 % 1022,3 hPa 0,0 l/m 12,6 km/h (3 Bft) W 259 0 min 0,000 mm 1,1 UV-I 201 W/m 9,7 C 7,3 C 19,3 km/h (3 Bft) 96,00 %
03.10.2016 11:12 11,1 C 92 % 1022,2 hPa 0,0 l/m 12,8 km/h (3 Bft) W-SW 256 0 min 0,000 mm 1,1 UV-I 225 W/m 9,8 C 7,4 C 17,7 km/h (3 Bft) 97,56 %
03.10.2016 11:14 11,1 C 92 % 1022,3 hPa 0,0 l/m 14,4 km/h (3 Bft) SW 227 0 min 0,000 mm 1,1 UV-I 216 W/m 9,8 C 6,7 C 25,7 km/h (4 Bft) 97,67 %
03.10.2016 11:16 11,2 C 92 % 1022,3 hPa 0,0 l/m 13,3 km/h (3 Bft) W-SW 254 0 min 0,000 mm 1,1 UV-I 199 W/m 9,9 C 7,3 C 20,9 km/h (4 Bft) 98,11 %
03.10.2016 11:18 11,2 C 91 % 1022,3 hPa 0,0 l/m 15,8 km/h (3 Bft) SW 224 0 min 0,000 mm 0,8 UV-I 156 W/m 9,8 C 6,3 C 20,9 km/h (4 Bft) 98,00 %
03.10.2016 11:20 11,2 C 91 % 1022,3 hPa 0,0 l/m 11,7 km/h (2 Bft) SW 224 0 min 0,000 mm 0,9 UV-I 135 W/m 9,8 C 8,0 C 17,7 km/h (3 Bft) 97,56 %
03.10.2016 11:22 11,2 C 91 % 1022,4 hPa 0,0 l/m 12,6 km/h (3 Bft) SW 220 0 min 0,000 mm 1,0 UV-I 174 W/m 9,8 C 7,6 C 19,3 km/h (3 Bft) 97,73 %
03.10.2016 11:24 11,3 C 91 % 1022,4 hPa 0,0 l/m 11,2 km/h (2 Bft) SW 234 0 min 0,000 mm 1,0 UV-I 184 W/m 9,9 C 8,4 C 19,3 km/h (3 Bft) 97,87 %
03.10.2016 11:26 11,3 C 91 % 1022,4 hPa 0,0 l/m 14,4 km/h (3 Bft) SW 228 0 min 0,000 mm 0,9 UV-I 181 W/m 9,9 C 7,0 C 20,9 km/h (4 Bft) 98,00 %
03.10.2016 11:28 11,3 C 90 % 1022,4 hPa 0,0 l/m 15,9 km/h (3 Bft) W 259 0 min 0,000 mm 1,0 UV-I 202 W/m 9,7 C 6,4 C 22,5 km/h (4 Bft) 96,23 %
03.10.2016 11:30 11,4 C 91 % 1022,4 hPa 0,0 l/m 15,8 km/h (3 Bft) SW 222 0 min 0,000 mm 1,1 UV-I 218 W/m 10,0 C 6,5 C 25,7 km/h (4 Bft) 95,74 %
03.10.2016 11:32 11,4 C 91 % 1022,4 hPa 0,0 l/m 12,7 km/h (3 Bft) W-SW 256 0 min 0,000 mm 1,2 UV-I 252 W/m 10,0 C 7,8 C 20,9 km/h (4 Bft) 97,37 %
03.10.2016 11:34 11,5 C 90 % 1022,4 hPa 0,0 l/m 15,5 km/h (3 Bft) SW 221 0 min 0,000 mm 1,2 UV-I 253 W/m 9,9 C 6,8 C 24,1 km/h (4 Bft) 95,45 %
03.10.2016 11:36 11,6 C 90 % 1022,5 hPa 0,0 l/m 15,0 km/h (3 Bft) SW 219 0 min 0,000 mm 1,3 UV-I 312 W/m 10,0 C 7,1 C 25,7 km/h (4 Bft) 98,00 %
03.10.2016 11:38 11,6 C 90 % 1022,5 hPa 0,0 l/m 14,7 km/h (3 Bft) S-SW 200 2 min 0,000 mm 1,4 UV-I 329 W/m 10,0 C 7,2 C 22,5 km/h (4 Bft) 98,00 %
03.10.2016 11:40 11,7 C 89 % 1022,5 hPa 0,0 l/m 20,2 km/h (4 Bft) W-SW 258 2 min 0,000 mm 1,4 UV-I 348 W/m 9,9 C 5,4 C 29,0 km/h (5 Bft) 100,00 %
03.10.2016 11:42 11,7 C 88 % 1022,4 hPa 0,0 l/m 19,1 km/h (3 Bft) W 276 2 min 0,000 mm 1,3 UV-I 347 W/m 9,8 C 5,8 C 30,6 km/h (5 Bft) 100,00 %
03.10.2016 11:44 11,7 C 88 % 1022,5 hPa 0,0 l/m 21,4 km/h (4 Bft) SW 217 2 min 0,000 mm 1,2 UV-I 373 W/m 9,8 C 5,1 C 29,0 km/h (5 Bft) 97,56 %
03.10.2016 11:46 11,7 C 88 % 1022,4 hPa 0,0 l/m 23,0 km/h (4 Bft) S-SW 201 0 min 0,000 mm 1,0 UV-I 220 W/m 9,8 C 4,6 C 35,4 km/h (5 Bft) 100,00 %
03.10.2016 11:48 11,8 C 87 % 1022,5 hPa 0,0 l/m 19,6 km/h (3 Bft) SW 223 0 min 0,000 mm 0,9 UV-I 199 W/m 9,7 C 5,7 C 29,0 km/h (5 Bft) 97,56 %
03.10.2016 11:50 11,7 C 87 % 1022,5 hPa 0,0 l/m 17,4 km/h (3 Bft) S-SW 213 0 min 0,000 mm 0,9 UV-I 172 W/m 9,6 C 6,3 C 30,6 km/h (5 Bft) 98,11 %
03.10.2016 11:52 11,7 C 87 % 1022,5 hPa 0,0 l/m 17,9 km/h (3 Bft) S 190 0 min 0,000 mm 1,0 UV-I 192 W/m 9,6 C 6,1 C 29,0 km/h (5 Bft) 100,00 %
03.10.2016 11:54 11,7 C 87 % 1022,5 hPa 0,0 l/m 16,9 km/h (3 Bft) W-SW 253 0 min 0,000 mm 1,1 UV-I 214 W/m 9,6 C 6,5 C 25,7 km/h (4 Bft) 97,37 %
03.10.2016 11:56 11,7 C 87 % 1022,5 hPa 0,0 l/m 18,2 km/h (3 Bft) W-SW 244 0 min 0,000 mm 1,0 UV-I 196 W/m 9,6 C 6,0 C 27,4 km/h (4 Bft) 100,00 %
03.10.2016 11:58 11,6 C 87 % 1022,5 hPa 0,0 l/m 17,9 km/h (3 Bft) SW 225 0 min 0,000 mm 0,9 UV-I 166 W/m 9,5 C 6,0 C 30,6 km/h (5 Bft) 100,00 %
03.10.2016 12:00 11,6 C 87 % 1022,6 hPa 0,0 l/m 13,4 km/h (3 Bft) SW 225 0 min 0,127 mm 0,7 UV-I 122 W/m 9,5 C 7,7 C 20,9 km/h (4 Bft) 97,37 %
03.10.2016 12:02 11,6 C 88 % 1022,7 hPa 0,0 l/m 16,6 km/h (3 Bft) W-SW 254 0 min 0,000 mm 0,8 UV-I 117 W/m 9,7 C 6,5 C 25,7 km/h (4 Bft) 98,31 %
03.10.2016 12:04 11,6 C 87 % 1022,6 hPa 0,0 l/m 17,2 km/h (3 Bft) W 269 0 min 0,000 mm 0,8 UV-I 124 W/m 9,5 C 6,3 C 22,5 km/h (4 Bft) 100,00 %
03.10.2016 12:06 11,6 C 87 % 1022,6 hPa 0,0 l/m 12,5 km/h (3 Bft) S-SW 209 0 min 0,000 mm 0,9 UV-I 155 W/m 9,5 C 8,1 C 19,3 km/h (3 Bft) 98,00 %
03.10.2016 12:08 11,6 C 88 % 1022,7 hPa 0,0 l/m 16,2 km/h (3 Bft) W-SW 258 0 min 0,000 mm 1,1 UV-I 204 W/m 9,7 C 6,6 C 30,6 km/h (5 Bft) 100,00 %
03.10.2016 12:10 11,6 C 87 % 1022,6 hPa 0,0 l/m 19,1 km/h (3 Bft) SW 230 0 min 0,000 mm 1,0 UV-I 192 W/m 9,5 C 5,6 C 30,6 km/h (5 Bft) 100,00 %
03.10.2016 12:12 11,6 C 86 % 1022,6 hPa 0,0 l/m 22,1 km/h (4 Bft) W-SW 257 0 min 0,000 mm 1,0 UV-I 204 W/m 9,3 C 4,7 C 33,8 km/h (5 Bft) 100,00 %
03.10.2016 12:14 11,7 C 87 % 1022,7 hPa 0,0 l/m 14,4 km/h (3 Bft) W-SW 242 0 min 0,000 mm 1,1 UV-I 223 W/m 9,6 C 7,4 C 25,7 km/h (4 Bft) 95,45 %
03.10.2016 12:16 11,7 C 87 % 1022,7 hPa 0,0 l/m 17,1 km/h (3 Bft) SW 221 0 min 0,000 mm 1,4 UV-I 295 W/m 9,6 C 6,4 C 27,4 km/h (4 Bft) 100,00 %
03.10.2016 12:18 11,8 C 87 % 1022,6 hPa 0,0 l/m 21,6 km/h (4 Bft) W-SW 237 0 min 0,000 mm 1,6 UV-I 325 W/m 9,7 C 5,2 C 32,2 km/h (5 Bft) 100,00 %
03.10.2016 12:20 11,8 C 86 % 1022,6 hPa 0,0 l/m 20,1 km/h (4 Bft) S-SW 199 2 min 0,000 mm 1,6 UV-I 348 W/m 9,5 C 5,6 C 33,8 km/h (5 Bft) 100,00 %
03.10.2016 12:22 11,8 C 85 % 1022,6 hPa 0,0 l/m 17,7 km/h (3 Bft) S-SW 200 0 min 0,000 mm 1,2 UV-I 219 W/m 9,4 C 6,3 C 29,0 km/h (5 Bft) 98,00 %
03.10.2016 12:24 11,8 C 86 % 1022,7 hPa 0,0 l/m 14,9 km/h (3 Bft) W-SW 238 0 min 0,000 mm 1,1 UV-I 184 W/m 9,5 C 7,4 C 30,6 km/h (5 Bft) 100,00 %
03.10.2016 12:26 11,8 C 85 % 1022,7 hPa 0,0 l/m 13,8 km/h (3 Bft) SW 231 0 min 0,000 mm 1,0 UV-I 189 W/m 9,4 C 7,8 C 20,9 km/h (4 Bft) 97,87 %
03.10.2016 12:28 11,8 C 86 % 1022,7 hPa 0,0 l/m 15,0 km/h (3 Bft) S-SW 198 0 min 0,000 mm 1,1 UV-I 183 W/m 9,5 C 7,3 C 22,5 km/h (4 Bft) 100,00 %
03.10.2016 12:30 11,7 C 86 % 1022,6 hPa 0,0 l/m 11,2 km/h (2 Bft) S-SW 207 0 min 0,000 mm 1,0 UV-I 145 W/m 9,4 C 8,9 C 20,9 km/h (4 Bft) 100,00 %
03.10.2016 12:32 11,7 C 86 % 1022,6 hPa 0,0 l/m 10,6 km/h (2 Bft) S-SW 192 0 min 0,000 mm 1,3 UV-I 223 W/m 9,4 C 9,2 C 16,1 km/h (3 Bft) 98,21 %
03.10.2016 12:34 11,8 C 87 % 1022,6 hPa 0,0 l/m 17,0 km/h (3 Bft) SW 234 2 min 0,000 mm 1,8 UV-I 348 W/m 9,7 C 6,6 C 27,4 km/h (4 Bft) 100,00 %
03.10.2016 12:36 11,9 C 87 % 1022,6 hPa 0,0 l/m 16,1 km/h (3 Bft) SW 221 2 min 0,000 mm 2,0 UV-I 381 W/m 9,8 C 7,0 C 29,0 km/h (5 Bft) 100,00 %
03.10.2016 12:38 12,1 C 86 % 1022,5 hPa 0,0 l/m 21,8 km/h (4 Bft) SW 232 0 min 0,000 mm 1,6 UV-I 334 W/m 9,8 C 5,5 C 35,4 km/h (5 Bft) 97,87 %
03.10.2016 12:40 12,1 C 84 % 1022,5 hPa 0,0 l/m 20,5 km/h (4 Bft) W-SW 238 0 min 0,000 mm 1,3 UV-I 215 W/m 9,5 C 5,9 C 30,6 km/h (5 Bft) 100,00 %
03.10.2016 12:42 12,1 C 84 % 1022,5 hPa 0,0 l/m 17,9 km/h (3 Bft) W-SW 246 0 min 0,000 mm 1,1 UV-I 195 W/m 9,5 C 6,7 C 27,4 km/h (4 Bft) 100,00 %
03.10.2016 12:44 12,1 C 85 % 1022,5 hPa 0,0 l/m 17,1 km/h (3 Bft) SW 232 0 min 0,000 mm 1,2 UV-I 207 W/m 9,7 C 6,9 C 24,1 km/h (4 Bft) 100,00 %
03.10.2016 12:46 12,1 C 84 % 1022,5 hPa 0,0 l/m 21,2 km/h (4 Bft) SW 226 0 min 0,000 mm 1,2 UV-I 222 W/m 9,5 C 5,7 C 29,0 km/h (5 Bft) 100,00 %
03.10.2016 12:48 12,0 C 84 % 1022,5 hPa 0,0 l/m 19,0 km/h (3 Bft) SW 215 0 min 0,000 mm 1,0 UV-I 171 W/m 9,4 C 6,2 C 27,4 km/h (4 Bft) 98,21 %
03.10.2016 12:50 11,9 C 85 % 1022,5 hPa 0,0 l/m 18,3 km/h (3 Bft) W-SW 246 0 min 0,000 mm 1,1 UV-I 183 W/m 9,5 C 6,3 C 24,1 km/h (4 Bft) 100,00 %
03.10.2016 12:52 11,9 C 84 % 1022,5 hPa 0,0 l/m 18,0 km/h (3 Bft) SW 224 0 min 0,000 mm 1,2 UV-I 184 W/m 9,3 C 6,4 C 27,4 km/h (4 Bft) 100,00 %
03.10.2016 12:54 11,9 C 85 % 1022,5 hPa 0,0 l/m 21,2 km/h (4 Bft) W-SW 242 0 min 0,000 mm 1,1 UV-I 171 W/m 9,5 C 5,4 C 32,2 km/h (5 Bft) 100,00 %
03.10.2016 12:56 11,9 C 85 % 1022,5 hPa 0,0 l/m 15,8 km/h (3 Bft) SW 221 0 min 0,000 mm 1,0 UV-I 157 W/m 9,5 C 7,1 C 24,1 km/h (4 Bft) 100,00 %
03.10.2016 12:58 11,9 C 86 % 1022,5 hPa 0,0 l/m 13,4 km/h (3 Bft) SW 218 0 min 0,000 mm 1,0 UV-I 152 W/m 9,6 C 8,1 C 19,3 km/h (3 Bft) 100,00 %
03.10.2016 13:00 11,8 C 86 % 1022,4 hPa 0,0 l/m 12,6 km/h (3 Bft) W-SW 237 0 min 0,127 mm 1,1 UV-I 166 W/m 9,5 C 8,3 C 20,9 km/h (4 Bft) 100,00 %
03.10.2016 13:02 11,8 C 86 % 1022,4 hPa 0,0 l/m 15,4 km/h (3 Bft) S-SW 205 0 min 0,000 mm 1,2 UV-I 171 W/m 9,5 C 7,2 C 24,1 km/h (4 Bft) 97,56 %
03.10.2016 13:04 11,7 C 86 % 1022,4 hPa 0,0 l/m 17,4 km/h (3 Bft) SW 229 0 min 0,000 mm 1,2 UV-I 166 W/m 9,4 C 6,3 C 27,4 km/h (4 Bft) 98,21 %
03.10.2016 13:06 11,7 C 86 % 1022,4 hPa 0,0 l/m 14,7 km/h (3 Bft) SW 223 0 min 0,000 mm 1,2 UV-I 163 W/m 9,4 C 7,3 C 20,9 km/h (4 Bft) 98,00 %
03.10.2016 13:08 11,8 C 87 % 1022,4 hPa 0,0 l/m 16,5 km/h (3 Bft) SW 225 0 min 0,000 mm 2,1 UV-I 183 W/m 9,7 C 6,8 C 27,4 km/h (4 Bft) 95,12 %
03.10.2016 13:10 12,0 C 87 % 1022,4 hPa 0,0 l/m 19,4 km/h (3 Bft) SW 224 2 min 0,000 mm 2,5 UV-I 590 W/m 9,9 C 6,1 C 32,2 km/h (5 Bft) 95,74 %
03.10.2016 13:12 12,3 C 85 % 1022,3 hPa 0,0 l/m 19,1 km/h (3 Bft) SW 236 2 min 0,000 mm 2,5 UV-I 752 W/m 9,9 C 6,5 C 29,0 km/h (5 Bft) 96,23 %
03.10.2016 13:14 12,7 C 85 % 1022,2 hPa 0,0 l/m 14,0 km/h (3 Bft) S-SW 208 2 min 0,000 mm 2,7 UV-I 836 W/m 10,2 C 8,8 C 20,9 km/h (4 Bft) 97,73 %
03.10.2016 13:16 12,9 C 85 % 1022,2 hPa 0,0 l/m 13,2 km/h (3 Bft) W-NW 284 2 min 0,000 mm 2,2 UV-I 833 W/m 10,4 C 9,3 C 19,3 km/h (3 Bft) 97,56 %
03.10.2016 13:18 13,1 C 83 % 1022,1 hPa 0,0 l/m 17,5 km/h (3 Bft) W-SW 257 2 min 0,000 mm 1,8 UV-I 346 W/m 10,3 C 8,0 C 29,0 km/h (5 Bft) 98,21 %
03.10.2016 13:20 13,1 C 81 % 1022,1 hPa 0,0 l/m 20,3 km/h (4 Bft) W 260 2 min 0,000 mm 1,9 UV-I 359 W/m 9,9 C 7,2 C 27,4 km/h (4 Bft) 97,87 %
03.10.2016 13:22 13,1 C 82 % 1022,1 hPa 0,0 l/m 17,8 km/h (3 Bft) S-SW 213 2 min 0,000 mm 1,5 UV-I 443 W/m 10,1 C 7,9 C 24,1 km/h (4 Bft) 95,83 %
03.10.2016 13:24 13,1 C 81 % 1022,1 hPa 0,0 l/m 22,2 km/h (4 Bft) SW 226 0 min 0,000 mm 1,1 UV-I 214 W/m 9,9 C 6,7 C 37,0 km/h (5 Bft) 100,00 %
03.10.2016 13:26 13,0 C 80 % 1022,1 hPa 0,0 l/m 19,2 km/h (3 Bft) W 260 0 min 0,000 mm 1,1 UV-I 210 W/m 9,6 C 7,4 C 32,2 km/h (5 Bft) 95,74 %
03.10.2016 13:28 12,9 C 80 % 1022,1 hPa 0,0 l/m 19,8 km/h (3 Bft) S-SW 205 0 min 0,000 mm 1,2 UV-I 229 W/m 9,5 C 7,1 C 27,4 km/h (4 Bft) 94,34 %
03.10.2016 13:30 12,9 C 80 % 1022,1 hPa 0,0 l/m 22,8 km/h (4 Bft) SW 232 0 min 0,000 mm 1,3 UV-I 241 W/m 9,5 C 6,3 C 30,6 km/h (5 Bft) 100,00 %
03.10.2016 13:32 12,8 C 80 % 1022,1 hPa 0,0 l/m 18,7 km/h (3 Bft) W 265 0 min 0,000 mm 1,3 UV-I 250 W/m 9,4 C 7,3 C 27,4 km/h (4 Bft) 98,11 %
03.10.2016 13:34 12,8 C 79 % 1022,1 hPa 0,0 l/m 21,8 km/h (4 Bft) W 267 0 min 0,000 mm 1,2 UV-I 242 W/m 9,2 C 6,4 C 30,6 km/h (5 Bft) 100,00 %
03.10.2016 13:36 12,8 C 79 % 1022,1 hPa 0,0 l/m 18,3 km/h (3 Bft) SW 233 0 min 0,000 mm 0,9 UV-I 212 W/m 9,2 C 7,4 C 27,4 km/h (4 Bft) 100,00 %
03.10.2016 13:38 12,8 C 79 % 1022,1 hPa 0,0 l/m 21,5 km/h (4 Bft) S-SW 211 0 min 0,000 mm 1,0 UV-I 216 W/m 9,2 C 6,5 C 32,2 km/h (5 Bft) 95,74 %
03.10.2016 13:40 12,8 C 80 % 1022,1 hPa 0,0 l/m 17,2 km/h (3 Bft) SW 235 0 min 0,000 mm 1,1 UV-I 231 W/m 9,4 C 7,8 C 25,7 km/h (4 Bft) 100,00 %
03.10.2016 13:42 12,8 C 79 % 1022,1 hPa 0,0 l/m 18,6 km/h (3 Bft) W 280 0 min 0,000 mm 1,1 UV-I 222 W/m 9,2 C 7,3 C 30,6 km/h (5 Bft) 100,00 %
03.10.2016 13:44 12,8 C 79 % 1022,1 hPa 0,0 l/m 17,9 km/h (3 Bft) S-SW 196 0 min 0,000 mm 0,9 UV-I 197 W/m 9,2 C 7,5 C 35,4 km/h (5 Bft) 98,11 %
03.10.2016 13:46 12,8 C 79 % 1022,1 hPa 0,0 l/m 21,8 km/h (4 Bft) SW 236 0 min 0,000 mm 0,7 UV-I 157 W/m 9,2 C 6,4 C 32,2 km/h (5 Bft) 100,00 %
03.10.2016 13:48 12,8 C 80 % 1022,1 hPa 0,0 l/m 23,6 km/h (4 Bft) S-SW 213 0 min 0,000 mm 0,6 UV-I 131 W/m 9,4 C 6,0 C 32,2 km/h (5 Bft) 100,00 %
03.10.2016 13:50 12,7 C 80 % 1022,1 hPa 0,0 l/m 21,8 km/h (4 Bft) W-SW 250 0 min 0,000 mm 0,7 UV-I 152 W/m 9,3 C 6,3 C 32,2 km/h (5 Bft) 100,00 %
03.10.2016 13:52 12,6 C 82 % 1022,0 hPa 0,0 l/m 18,4 km/h (3 Bft) W 271 0 min 0,000 mm 0,7 UV-I 158 W/m 9,6 C 7,1 C 37,0 km/h (5 Bft) 100,00 %
03.10.2016 13:54 12,5 C 83 % 1022,1 hPa 0,0 l/m 18,9 km/h (3 Bft) W-SW 253 0 min 0,000 mm 0,7 UV-I 158 W/m 9,7 C 6,8 C 27,4 km/h (4 Bft) 100,00 %
03.10.2016 13:56 12,5 C 82 % 1022,0 hPa 0,0 l/m 20,3 km/h (4 Bft) SW 236 0 min 0,000 mm 0,9 UV-I 189 W/m 9,5 C 6,4 C 30,6 km/h (5 Bft) 100,00 %
03.10.2016 13:58 12,5 C 82 % 1022,0 hPa 0,0 l/m 16,9 km/h (3 Bft) W-SW 253 0 min 0,000 mm 0,9 UV-I 198 W/m 9,5 C 7,5 C 27,4 km/h (4 Bft) 100,00 %
03.10.2016 14:00 12,5 C 82 % 1022,0 hPa 0,0 l/m 21,1 km/h (4 Bft) SW 215 0 min 0,178 mm 0,8 UV-I 191 W/m 9,5 C 6,2 C 33,8 km/h (5 Bft) 94,83 %
03.10.2016 14:02 12,6 C 82 % 1022,0 hPa 0,0 l/m 17,8 km/h (3 Bft) SW 219 0 min 0,000 mm 0,8 UV-I 187 W/m 9,6 C 7,3 C 25,7 km/h (4 Bft) 97,37 %
03.10.2016 14:04 12,6 C 82 % 1022,0 hPa 0,0 l/m 19,5 km/h (3 Bft) SW 220 0 min 0,000 mm 0,9 UV-I 209 W/m 9,6 C 6,8 C 30,6 km/h (5 Bft) 100,00 %
03.10.2016 14:06 12,6 C 82 % 1022,0 hPa 0,0 l/m 19,9 km/h (4 Bft) W-SW 239 0 min 0,000 mm 0,9 UV-I 186 W/m 9,6 C 6,7 C 32,2 km/h (5 Bft) 100,00 %
03.10.2016 14:08 12,7 C 81 % 1022,0 hPa 0,0 l/m 16,4 km/h (3 Bft) W-SW 243 0 min 0,000 mm 0,7 UV-I 152 W/m 9,5 C 7,9 C 22,5 km/h (4 Bft) 100,00 %
03.10.2016 14:10 12,7 C 82 % 1022,1 hPa 0,0 l/m 17,8 km/h (3 Bft) W 263 0 min 0,000 mm 0,6 UV-I 131 W/m 9,7 C 7,4 C 30,6 km/h (5 Bft) 100,00 %
03.10.2016 14:12 12,6 C 81 % 1022,0 hPa 0,0 l/m 19,2 km/h (3 Bft) W-SW 251 0 min 0,000 mm 0,1 UV-I 87 W/m 9,4 C 6,9 C 25,7 km/h (4 Bft) 100,00 %
03.10.2016 14:14 12,6 C 82 % 1021,9 hPa 0,0 l/m 18,9 km/h (3 Bft) SW 234 0 min 0,000 mm 0,0 UV-I 60 W/m 9,6 C 7,0 C 30,6 km/h (5 Bft) 97,73 %
03.10.2016 14:16 12,4 C 83 % 1022,1 hPa 0,0 l/m 19,1 km/h (3 Bft) W-SW 250 0 min 0,000 mm 0,0 UV-I 66 W/m 9,6 C 6,7 C 29,0 km/h (5 Bft) 100,00 %
03.10.2016 14:19 12,3 C 84 % 1022,1 hPa 0,0 l/m 16,7 km/h (3 Bft) W 261 0 min 0,000 mm 0,6 UV-I 154 W/m 9,7 C 7,3 C 24,1 km/h (4 Bft) 97,26 %
03.10.2016 14:20 12,3 C 85 % 1022,1 hPa 0,0 l/m 12,6 km/h (3 Bft) W 264 0 min 0,000 mm 1,1 UV-I 249 W/m 9,9 C 8,9 C 17,7 km/h (3 Bft) 96,67 %
03.10.2016 14:22 12,3 C 85 % 1022,0 hPa 0,0 l/m 13,8 km/h (3 Bft) W-SW 254 2 min 0,000 mm 1,4 UV-I 315 W/m 9,9 C 8,4 C 19,3 km/h (3 Bft) 97,50 %
03.10.2016 14:24 12,3 C 86 % 1022,0 hPa 0,0 l/m 17,6 km/h (3 Bft) W-SW 246 0 min 0,000 mm 1,3 UV-I 272 W/m 10,0 C 7,0 C 24,1 km/h (4 Bft) 100,00 %
03.10.2016 14:26 12,4 C 86 % 1022,0 hPa 0,0 l/m 16,3 km/h (3 Bft) W-SW 246 0 min 0,000 mm 1,3 UV-I 283 W/m 10,1 C 7,6 C 25,7 km/h (4 Bft) 100,00 %
03.10.2016 14:28 12,5 C 85 % 1022,0 hPa 0,0 l/m 16,9 km/h (3 Bft) W-SW 248 0 min 0,000 mm 1,3 UV-I 265 W/m 10,0 C 7,5 C 24,1 km/h (4 Bft) 98,00 %
03.10.2016 14:30 12,6 C 85 % 1022,1 hPa 0,0 l/m 15,6 km/h (3 Bft) W-SW 257 0 min 0,000 mm 1,2 UV-I 233 W/m 10,1 C 8,1 C 20,9 km/h (4 Bft) 100,00 %
03.10.2016 14:32 12,6 C 85 % 1022,0 hPa 0,0 l/m 14,2 km/h (3 Bft) W-SW 256 0 min 0,000 mm 1,2 UV-I 261 W/m 10,1 C 8,6 C 19,3 km/h (3 Bft) 100,00 %
03.10.2016 14:34 12,7 C 86 % 1022,0 hPa 0,0 l/m 12,9 km/h (3 Bft) W 265 2 min 0,000 mm 1,3 UV-I 357 W/m 10,4 C 9,2 C 17,7 km/h (3 Bft) 100,00 %
03.10.2016 14:36 12,9 C 85 % 1022,0 hPa 0,0 l/m 10,2 km/h (2 Bft) W-SW 252 2 min 0,000 mm 1,2 UV-I 321 W/m 10,4 C 10,7 C 14,5 km/h (3 Bft) 100,00 %
03.10.2016 14:38 13,0 C 85 % 1022,0 hPa 0,0 l/m 14,1 km/h (3 Bft) W-SW 247 0 min 0,000 mm 1,2 UV-I 289 W/m 10,5 C 9,1 C 19,3 km/h (3 Bft) 100,00 %
03.10.2016 14:40 13,1 C 84 % 1022,0 hPa 0,0 l/m 15,7 km/h (3 Bft) W-SW 248 0 min 0,000 mm 1,4 UV-I 291 W/m 10,5 C 8,6 C 25,7 km/h (4 Bft) 98,00 %
03.10.2016 14:42 13,2 C 83 % 1022,0 hPa 0,0 l/m 17,1 km/h (3 Bft) W-SW 252 0 min 0,000 mm 1,5 UV-I 294 W/m 10,4 C 8,3 C 27,4 km/h (4 Bft) 100,00 %
03.10.2016 14:44 13,2 C 82 % 1022,0 hPa 0,0 l/m 14,8 km/h (3 Bft) W 259 0 min 0,000 mm 1,3 UV-I 258 W/m 10,2 C 9,1 C 20,9 km/h (4 Bft) 100,00 %
03.10.2016 14:46 13,3 C 81 % 1022,0 hPa 0,0 l/m 13,9 km/h (3 Bft) W-SW 257 0 min 0,000 mm 1,3 UV-I 265 W/m 10,1 C 9,5 C 22,5 km/h (4 Bft) 97,96 %
03.10.2016 14:48 13,3 C 81 % 1022,0 hPa 0,0 l/m 16,0 km/h (3 Bft) W 260 2 min 0,000 mm 1,3 UV-I 299 W/m 10,1 C 8,8 C 22,5 km/h (4 Bft) 100,00 %
03.10.2016 14:50 13,3 C 82 % 1022,0 hPa 0,0 l/m 11,4 km/h (2 Bft) W 261 0 min 0,000 mm 1,3 UV-I 260 W/m 10,3 C 10,6 C 20,9 km/h (4 Bft) 98,00 %
03.10.2016 14:52 13,3 C 82 % 1022,0 hPa 0,0 l/m 15,0 km/h (3 Bft) S 186 0 min 0,000 mm 1,1 UV-I 220 W/m 10,3 C 9,1 C 27,4 km/h (4 Bft) 100,00 %
03.10.2016 14:54 13,2 C 82 % 1021,9 hPa 0,0 l/m 16,1 km/h (3 Bft) W-SW 242 0 min 0,000 mm 1,1 UV-I 198 W/m 10,2 C 8,6 C 24,1 km/h (4 Bft) 95,74 %
03.10.2016 14:56 13,2 C 81 % 1022,0 hPa 0,0 l/m 17,1 km/h (3 Bft) SW 227 0 min 0,000 mm 1,2 UV-I 261 W/m 10,0 C 8,3 C 22,5 km/h (4 Bft) 97,73 %
03.10.2016 14:58 13,2 C 81 % 1021,9 hPa 0,0 l/m 16,1 km/h (3 Bft) W 261 0 min 0,000 mm 1,2 UV-I 268 W/m 10,0 C 8,6 C 24,1 km/h (4 Bft) 97,56 %
03.10.2016 15:00 13,2 C 82 % 1022,0 hPa 0,0 l/m 13,8 km/h (3 Bft) W 265 0 min 0,152 mm 1,4 UV-I 279 W/m 10,2 C 9,5 C 24,1 km/h (4 Bft) 96,23 %
03.10.2016 15:02 13,3 C 82 % 1022,0 hPa 0,0 l/m 14,5 km/h (3 Bft) W-SW 246 0 min 0,000 mm 1,1 UV-I 192 W/m 10,3 C 9,3 C 20,9 km/h (4 Bft) 92,11 %
03.10.2016 15:04 13,3 C 80 % 1022,0 hPa 0,0 l/m 13,7 km/h (3 Bft) W-SW 245 0 min 0,000 mm 0,9 UV-I 132 W/m 9,9 C 9,6 C 20,9 km/h (4 Bft) 97,87 %
03.10.2016 15:06 13,2 C 81 % 1022,0 hPa 0,0 l/m 15,0 km/h (3 Bft) SW 223 0 min 0,000 mm 0,7 UV-I 108 W/m 10,0 C 9,0 C 20,9 km/h (4 Bft) 96,00 %
03.10.2016 15:08 13,2 C 81 % 1021,9 hPa 0,0 l/m 17,0 km/h (3 Bft) SW 224 0 min 0,000 mm 0,6 UV-I 160 W/m 10,0 C 8,3 C 25,7 km/h (4 Bft) 97,56 %
03.10.2016 15:10 13,3 C 81 % 1022,0 hPa 0,0 l/m 13,8 km/h (3 Bft) W-SW 238 2 min 0,000 mm 1,3 UV-I 303 W/m 10,1 C 9,6 C 25,7 km/h (4 Bft) 98,28 %
03.10.2016 15:12 13,4 C 80 % 1021,9 hPa 0,0 l/m 17,3 km/h (3 Bft) SW 231 2 min 0,000 mm 1,4 UV-I 626 W/m 10,0 C 8,5 C 25,7 km/h (4 Bft) 97,56 %
03.10.2016 15:14 13,6 C 79 % 1021,9 hPa 0,0 l/m 19,9 km/h (4 Bft) W-SW 257 0 min 0,000 mm 1,2 UV-I 234 W/m 10,0 C 8,0 C 27,4 km/h (4 Bft) 96,23 %
03.10.2016 15:16 13,7 C 78 % 1021,9 hPa 0,0 l/m 17,3 km/h (3 Bft) W-SW 251 2 min 0,000 mm 1,5 UV-I 326 W/m 9,9 C 8,9 C 27,4 km/h (4 Bft) 97,37 %
03.10.2016 15:18 13,7 C 76 % 1021,9 hPa 0,0 l/m 24,3 km/h (4 Bft) W 264 2 min 0,000 mm 1,5 UV-I 506 W/m 9,5 C 7,0 C 38,6 km/h (5 Bft) 98,00 %
03.10.2016 15:20 13,6 C 74 % 1021,9 hPa 0,0 l/m 19,4 km/h (3 Bft) W-SW 242 0 min 0,000 mm 1,0 UV-I 111 W/m 9,1 C 8,1 C 25,7 km/h (4 Bft) 96,00 %
03.10.2016 15:22 13,5 C 74 % 1021,9 hPa 0,0 l/m 16,3 km/h (3 Bft) W 279 2 min 0,000 mm 1,3 UV-I 268 W/m 9,0 C 8,9 C 22,5 km/h (4 Bft) 97,87 %
03.10.2016 15:24 13,4 C 74 % 1021,9 hPa 0,2 l/m 21,3 km/h (4 Bft) W-SW 239 2 min 0,000 mm 1,4 UV-I 480 W/m 8,9 C 7,3 C 30,6 km/h (5 Bft) 97,62 %
03.10.2016 15:26 13,6 C 75 % 1022,0 hPa 0,0 l/m 17,3 km/h (3 Bft) W-SW 253 2 min 0,000 mm 1,3 UV-I 466 W/m 9,3 C 8,7 C 27,4 km/h (4 Bft) 97,87 %
03.10.2016 15:28 13,7 C 75 % 1022,0 hPa 0,0 l/m 19,9 km/h (4 Bft) W-SW 242 2 min 0,000 mm 1,3 UV-I 466 W/m 9,3 C 8,1 C 32,2 km/h (5 Bft) 100,00 %
03.10.2016 15:30 13,7 C 74 % 1022,0 hPa 0,0 l/m 19,5 km/h (3 Bft) W-SW 238 2 min 0,000 mm 1,1 UV-I 464 W/m 9,2 C 8,2 C 29,0 km/h (5 Bft) 100,00 %
03.10.2016 15:32 13,6 C 74 % 1022,0 hPa 0,0 l/m 15,3 km/h (3 Bft) W-NW 295 0 min 0,000 mm 1,0 UV-I 222 W/m 9,1 C 9,4 C 22,5 km/h (4 Bft) 100,00 %
03.10.2016 15:34 13,6 C 75 % 1022,0 hPa 0,0 l/m 15,4 km/h (3 Bft) W 271 2 min 0,000 mm 1,1 UV-I 293 W/m 9,3 C 9,4 C 20,9 km/h (4 Bft) 100,00 %
03.10.2016 15:36 13,6 C 75 % 1022,0 hPa 0,0 l/m 19,5 km/h (3 Bft) W-SW 239 0 min 0,000 mm 0,9 UV-I 203 W/m 9,3 C 8,1 C 29,0 km/h (5 Bft) 100,00 %
03.10.2016 15:38 13,4 C 75 % 1022,0 hPa 0,0 l/m 15,1 km/h (3 Bft) W-SW 250 0 min 0,000 mm 0,8 UV-I 198 W/m 9,1 C 9,2 C 25,7 km/h (4 Bft) 100,00 %
03.10.2016 15:40 13,4 C 76 % 1022,1 hPa 0,0 l/m 13,7 km/h (3 Bft) W 261 0 min 0,000 mm 0,7 UV-I 201 W/m 9,3 C 9,7 C 19,3 km/h (3 Bft) 100,00 %
03.10.2016 15:42 13,3 C 76 % 1022,0 hPa 0,0 l/m 12,7 km/h (3 Bft) W-SW 245 0 min 0,000 mm 0,7 UV-I 193 W/m 9,2 C 10,0 C 19,3 km/h (3 Bft) 100,00 %
03.10.2016 15:44 13,3 C 77 % 1022,0 hPa 0,0 l/m 14,6 km/h (3 Bft) W 259 0 min 0,000 mm 0,7 UV-I 188 W/m 9,4 C 9,3 C 24,1 km/h (4 Bft) 100,00 %
03.10.2016 15:46 13,3 C 76 % 1022,0 hPa 0,0 l/m 14,0 km/h (3 Bft) W-SW 242 0 min 0,000 mm 0,7 UV-I 181 W/m 9,2 C 9,5 C 24,1 km/h (4 Bft) 97,87 %
03.10.2016 15:48 13,3 C 77 % 1022,0 hPa 0,0 l/m 13,0 km/h (3 Bft) SW 233 0 min 0,000 mm 0,7 UV-I 172 W/m 9,4 C 9,9 C 25,7 km/h (4 Bft) 100,00 %
03.10.2016 15:50 13,3 C 76 % 1022,0 hPa 0,0 l/m 13,0 km/h (3 Bft) W-SW 257 0 min 0,000 mm 0,7 UV-I 179 W/m 9,2 C 9,9 C 19,3 km/h (3 Bft) 100,00 %
03.10.2016 15:52 13,3 C 77 % 1022,0 hPa 0,0 l/m 14,6 km/h (3 Bft) W 280 0 min 0,000 mm 0,6 UV-I 185 W/m 9,4 C 9,3 C 24,1 km/h (4 Bft) 100,00 %
03.10.2016 15:54 13,3 C 77 % 1021,9 hPa 0,0 l/m 14,3 km/h (3 Bft) W-SW 255 0 min 0,000 mm 0,6 UV-I 174 W/m 9,4 C 9,4 C 24,1 km/h (4 Bft) 100,00 %
03.10.2016 15:56 13,3 C 76 % 1021,9 hPa 0,0 l/m 13,6 km/h (3 Bft) W-SW 257 0 min 0,000 mm 0,6 UV-I 174 W/m 9,2 C 9,7 C 24,1 km/h (4 Bft) 100,00 %
03.10.2016 15:58 13,3 C 77 % 1021,9 hPa 0,0 l/m 11,8 km/h (2 Bft) SW 232 0 min 0,000 mm 0,6 UV-I 179 W/m 9,4 C 10,4 C 20,9 km/h (4 Bft) 100,00 %
03.10.2016 16:00 13,3 C 77 % 1021,9 hPa 0,0 l/m 9,2 km/h (2 Bft) W-SW 240 0 min 0,000 mm 0,6 UV-I 181 W/m 9,4 C 11,7 C 19,3 km/h (3 Bft) 100,00 %
03.10.2016 16:02 13,4 C 78 % 1021,9 hPa 0,0 l/m 9,4 km/h (2 Bft) W-SW 249 0 min 0,178 mm 0,5 UV-I 164 W/m 9,6 C 11,7 C 16,1 km/h (3 Bft) 100,00 %
03.10.2016 16:04 13,4 C 77 % 1021,9 hPa 0,0 l/m 10,0 km/h (2 Bft) W-SW 246 0 min 0,000 mm 0,5 UV-I 167 W/m 9,5 C 11,4 C 17,7 km/h (3 Bft) 100,00 %
03.10.2016 16:06 13,4 C 77 % 1021,9 hPa 0,0 l/m 11,0 km/h (2 Bft) W-NW 289 0 min 0,000 mm 0,0 UV-I 140 W/m 9,5 C 10,9 C 16,1 km/h (3 Bft) 100,00 %
03.10.2016 16:08 13,4 C 77 % 1021,9 hPa 0,0 l/m 11,9 km/h (2 Bft) W-SW 252 0 min 0,000 mm 0,0 UV-I 115 W/m 9,5 C 10,5 C 20,9 km/h (4 Bft) 100,00 %
03.10.2016 16:10 13,4 C 77 % 1021,9 hPa 0,0 l/m 12,0 km/h (2 Bft) S-SW 211 0 min 0,000 mm 0,0 UV-I 111 W/m 9,5 C 10,4 C 19,3 km/h (3 Bft) 98,21 %
03.10.2016 16:12 13,4 C 78 % 1021,9 hPa 0,0 l/m 10,2 km/h (2 Bft) SW 230 0 min 0,000 mm 0,0 UV-I 102 W/m 9,6 C 11,3 C 19,3 km/h (3 Bft) 100,00 %
03.10.2016 16:14 13,3 C 78 % 1021,9 hPa 0,0 l/m 15,0 km/h (3 Bft) SW 228 0 min 0,000 mm 0,0 UV-I 108 W/m 9,5 C 9,1 C 20,9 km/h (4 Bft) 98,11 %
03.10.2016 16:16 13,3 C 80 % 1021,9 hPa 0,0 l/m 11,7 km/h (2 Bft) S-SW 208 0 min 0,000 mm 0,0 UV-I 117 W/m 9,9 C 10,4 C 20,9 km/h (4 Bft) 100,00 %
03.10.2016 16:19 13,3 C 79 % 1021,9 hPa 0,0 l/m 14,2 km/h (3 Bft) SW 229 0 min 0,000 mm 0,0 UV-I 109 W/m 9,7 C 9,4 C 22,5 km/h (4 Bft) 100,00 %
03.10.2016 16:20 13,3 C 79 % 1021,9 hPa 0,0 l/m 15,2 km/h (3 Bft) SW 225 0 min 0,000 mm 0,0 UV-I 102 W/m 9,7 C 9,1 C 17,7 km/h (3 Bft) 95,83 %
03.10.2016 16:22 13,3 C 79 % 1021,9 hPa 0,0 l/m 11,1 km/h (2 Bft) W 260 0 min 0,000 mm 0,0 UV-I 97 W/m 9,7 C 10,7 C 19,3 km/h (3 Bft) 100,00 %
03.10.2016 16:24 13,3 C 80 % 1021,9 hPa 0,0 l/m 11,8 km/h (2 Bft) W 260 0 min 0,000 mm 0,0 UV-I 90 W/m 9,9 C 10,4 C 19,3 km/h (3 Bft) 100,00 %
03.10.2016 16:26 13,3 C 79 % 1021,8 hPa 0,0 l/m 11,8 km/h (2 Bft) S-SW 202 0 min 0,000 mm 0,0 UV-I 87 W/m 9,7 C 10,4 C 17,7 km/h (3 Bft) 98,11 %
03.10.2016 16:28 13,3 C 79 % 1021,9 hPa 0,0 l/m 12,5 km/h (3 Bft) W-SW 250 0 min 0,000 mm 0,0 UV-I 95 W/m 9,7 C 10,1 C 17,7 km/h (3 Bft) 100,00 %
03.10.2016 16:30 13,3 C 78 % 1021,9 hPa 0,0 l/m 11,2 km/h (2 Bft) W-SW 250 0 min 0,000 mm 0,0 UV-I 88 W/m 9,5 C 10,7 C 17,7 km/h (3 Bft) 98,00 %
03.10.2016 16:32 13,3 C 79 % 1021,9 hPa 0,0 l/m 12,7 km/h (3 Bft) W 259 0 min 0,000 mm 0,0 UV-I 66 W/m 9,7 C 10,0 C 19,3 km/h (3 Bft) 100,00 %
03.10.2016 16:34 13,3 C 79 % 1021,9 hPa 0,0 l/m 12,2 km/h (2 Bft) W-SW 246 0 min 0,000 mm 0,0 UV-I 52 W/m 9,7 C 10,2 C 17,7 km/h (3 Bft) 100,00 %
03.10.2016 16:36 13,2 C 77 % 1021,9 hPa 0,0 l/m 13,7 km/h (3 Bft) N-NW 342 0 min 0,000 mm 0,0 UV-I 42 W/m 9,3 C 9,5 C 20,9 km/h (4 Bft) 100,00 %
03.10.2016 16:38 13,1 C 78 % 1021,9 hPa 0,0 l/m 13,5 km/h (3 Bft) W 281 0 min 0,000 mm 0,0 UV-I 30 W/m 9,4 C 9,5 C 24,1 km/h (4 Bft) 100,00 %
03.10.2016 16:40 12,9 C 79 % 1022,0 hPa 0,0 l/m 7,1 km/h (2 Bft) W-NW 285 0 min 0,000 mm 0,0 UV-I 23 W/m 9,3 C 12,5 C 17,7 km/h (3 Bft) 100,00 %
03.10.2016 16:42 12,8 C 81 % 1022,1 hPa 0,0 l/m 5,5 km/h (1 Bft) W-NW 302 0 min 0,000 mm 0,0 UV-I 21 W/m 9,6 C 12,8 C 12,9 km/h (3 Bft) 100,00 %
03.10.2016 16:44 12,5 C 83 % 1022,1 hPa 0,2 l/m 8,0 km/h (2 Bft) W-SW 248 0 min 0,000 mm 0,0 UV-I 18 W/m 9,7 C 11,5 C 16,1 km/h (3 Bft) 100,00 %
03.10.2016 16:46 12,2 C 84 % 1022,3 hPa 0,2 l/m 12,8 km/h (3 Bft) W 265 0 min 0,000 mm 0,0 UV-I 26 W/m 9,6 C 8,7 C 19,3 km/h (3 Bft) 100,00 %
03.10.2016 16:48 11,9 C 84 % 1022,3 hPa 0,4 l/m 13,3 km/h (3 Bft) W-SW 252 0 min 0,000 mm 0,0 UV-I 40 W/m 9,3 C 8,1 C 22,5 km/h (4 Bft) 98,11 %
03.10.2016 16:50 11,6 C 86 % 1022,2 hPa 0,2 l/m 13,1 km/h (3 Bft) W-NW 284 0 min 0,000 mm 0,0 UV-I 67 W/m 9,3 C 7,9 C 22,5 km/h (4 Bft) 97,73 %
03.10.2016 16:52 11,3 C 87 % 1022,1 hPa 0,2 l/m 12,6 km/h (3 Bft) SW 224 0 min 0,000 mm 0,0 UV-I 119 W/m 9,2 C 7,7 C 19,3 km/h (3 Bft) 97,73 %
03.10.2016 16:54 11,2 C 88 % 1022,1 hPa 0,0 l/m 13,2 km/h (3 Bft) SW 226 0 min 0,000 mm 0,0 UV-I 122 W/m 9,3 C 7,3 C 17,7 km/h (3 Bft) 97,56 %
03.10.2016 16:56 11,1 C 89 % 1022,1 hPa 0,0 l/m 11,4 km/h (2 Bft) W-SW 243 0 min 0,000 mm 0,0 UV-I 101 W/m 9,4 C 8,1 C 19,3 km/h (3 Bft) 94,64 %
03.10.2016 16:58 11,1 C 89 % 1022,1 hPa 0,0 l/m 12,4 km/h (3 Bft) W-SW 252 0 min 0,000 mm 0,0 UV-I 70 W/m 9,4 C 7,6 C 16,1 km/h (3 Bft) 100,00 %
03.10.2016 17:00 11,1 C 90 % 1022,1 hPa 0,0 l/m 12,8 km/h (3 Bft) W-SW 240 0 min 0,000 mm 0,0 UV-I 70 W/m 9,5 C 7,4 C 19,3 km/h (3 Bft) 96,23 %
03.10.2016 17:02 11,1 C 90 % 1022,1 hPa 0,0 l/m 11,8 km/h (2 Bft) W-SW 248 0 min 0,076 mm 0,0 UV-I 84 W/m 9,5 C 7,9 C 16,1 km/h (3 Bft) 97,56 %
03.10.2016 17:04 11,1 C 90 % 1022,1 hPa 0,0 l/m 12,8 km/h (3 Bft) W-SW 249 0 min 0,000 mm 0,0 UV-I 72 W/m 9,5 C 7,4 C 19,3 km/h (3 Bft) 97,56 %
03.10.2016 17:06 11,1 C 90 % 1022,2 hPa 0,0 l/m 9,6 km/h (2 Bft) W 262 0 min 0,000 mm 0,0 UV-I 50 W/m 9,5 C 9,0 C 14,5 km/h (3 Bft) 98,00 %
03.10.2016 17:08 11,2 C 90 % 1022,2 hPa 0,0 l/m 13,5 km/h (3 Bft) W-SW 242 0 min 0,000 mm 0,0 UV-I 44 W/m 9,6 C 7,2 C 20,9 km/h (4 Bft) 98,11 %
03.10.2016 17:10 11,2 C 90 % 1022,2 hPa 0,0 l/m 13,8 km/h (3 Bft) W-SW 254 0 min 0,000 mm 0,0 UV-I 47 W/m 9,6 C 7,1 C 20,9 km/h (4 Bft) 97,37 %
03.10.2016 17:12 11,2 C 90 % 1022,2 hPa 0,0 l/m 14,9 km/h (3 Bft) S-SW 210 0 min 0,000 mm 0,0 UV-I 43 W/m 9,6 C 6,6 C 20,9 km/h (4 Bft) 98,21 %
03.10.2016 17:14 11,2 C 89 % 1022,4 hPa 0,0 l/m 12,0 km/h (2 Bft) W 260 0 min 0,000 mm 0,0 UV-I 31 W/m 9,5 C 7,9 C 16,1 km/h (3 Bft) 96,00 %
03.10.2016 17:16 11,2 C 89 % 1022,3 hPa 0,0 l/m 14,9 km/h (3 Bft) W-SW 244 0 min 0,000 mm 0,0 UV-I 23 W/m 9,5 C 6,6 C 22,5 km/h (4 Bft) 100,00 %
03.10.2016 17:18 11,2 C 89 % 1022,4 hPa 0,0 l/m 11,9 km/h (2 Bft) W 272 0 min 0,000 mm 0,0 UV-I 26 W/m 9,5 C 7,9 C 17,7 km/h (3 Bft) 94,34 %
03.10.2016 17:20 11,2 C 89 % 1022,4 hPa 0,0 l/m 12,4 km/h (3 Bft) W-SW 253 0 min 0,000 mm 0,0 UV-I 40 W/m 9,5 C 7,7 C 17,7 km/h (3 Bft) 97,87 %
03.10.2016 17:22 11,2 C 89 % 1022,4 hPa 0,0 l/m 11,5 km/h (2 Bft) W-SW 252 0 min 0,000 mm 0,0 UV-I 54 W/m 9,5 C 8,1 C 14,5 km/h (3 Bft) 98,00 %
03.10.2016 17:24 11,2 C 89 % 1022,4 hPa 0,0 l/m 9,7 km/h (2 Bft) SW 234 2 min 0,000 mm 0,0 UV-I 112 W/m 9,5 C 9,1 C 16,1 km/h (3 Bft) 97,62 %
03.10.2016 17:26 11,2 C 89 % 1022,2 hPa 0,0 l/m 12,0 km/h (2 Bft) SW 229 2 min 0,000 mm 0,0 UV-I 206 W/m 9,5 C 7,9 C 16,1 km/h (3 Bft) 100,00 %
03.10.2016 17:28 11,3 C 89 % 1022,2 hPa 0,0 l/m 11,4 km/h (2 Bft) S-SW 199 2 min 0,000 mm 0,0 UV-I 195 W/m 9,6 C 8,3 C 16,1 km/h (3 Bft) 100,00 %
03.10.2016 17:30 11,4 C 89 % 1022,2 hPa 0,0 l/m 9,0 km/h (2 Bft) W-SW 254 2 min 0,000 mm 0,0 UV-I 121 W/m 9,7 C 9,7 C 12,9 km/h (3 Bft) 100,00 %
03.10.2016 17:32 11,4 C 89 % 1022,2 hPa 0,0 l/m 11,1 km/h (2 Bft) SW 236 0 min 0,000 mm 0,0 UV-I 67 W/m 9,7 C 8,6 C 17,7 km/h (3 Bft) 98,00 %
03.10.2016 17:34 11,4 C 88 % 1022,4 hPa 0,0 l/m 9,2 km/h (2 Bft) SW 218 0 min 0,000 mm 0,0 UV-I 58 W/m 9,5 C 9,6 C 14,5 km/h (3 Bft) 98,00 %
03.10.2016 17:36 11,4 C 89 % 1022,2 hPa 0,0 l/m 6,9 km/h (2 Bft) SW 234 0 min 0,000 mm 0,0 UV-I 52 W/m 9,7 C 11,1 C 9,7 km/h (2 Bft) 100,00 %
03.10.2016 17:38 11,4 C 89 % 1022,2 hPa 0,0 l/m 7,4 km/h (2 Bft) W-SW 253 0 min 0,000 mm 0,0 UV-I 51 W/m 9,7 C 10,7 C 12,9 km/h (3 Bft) 100,00 %
03.10.2016 17:40 11,4 C 89 % 1022,2 hPa 0,0 l/m 8,3 km/h (2 Bft) W-SW 251 0 min 0,000 mm 0,0 UV-I 47 W/m 9,7 C 10,1 C 12,9 km/h (3 Bft) 100,00 %
03.10.2016 17:42 11,4 C 89 % 1022,3 hPa 0,0 l/m 9,1 km/h (2 Bft) SW 215 0 min 0,000 mm 0,0 UV-I 59 W/m 9,7 C 9,6 C 14,5 km/h (3 Bft) 100,00 %
03.10.2016 17:44 11,4 C 89 % 1022,2 hPa 0,0 l/m 10,1 km/h (2 Bft) W-SW 257 0 min 0,000 mm 0,0 UV-I 69 W/m 9,7 C 9,1 C 16,1 km/h (3 Bft) 97,87 %
03.10.2016 17:46 11,4 C 89 % 1022,2 hPa 0,0 l/m 7,5 km/h (2 Bft) SW 233 0 min 0,000 mm 0,0 UV-I 70 W/m 9,7 C 10,7 C 9,7 km/h (2 Bft) 100,00 %
03.10.2016 17:48 11,5 C 89 % 1022,2 hPa 0,0 l/m 8,3 km/h (2 Bft) SW 234 0 min 0,000 mm 0,0 UV-I 70 W/m 9,8 C 10,2 C 14,5 km/h (3 Bft) 97,37 %
03.10.2016 17:50 11,5 C 89 % 1022,2 hPa 0,0 l/m 8,5 km/h (2 Bft) SW 221 0 min 0,000 mm 0,0 UV-I 63 W/m 9,8 C 10,1 C 11,3 km/h (2 Bft) 100,00 %
03.10.2016 17:52 11,5 C 89 % 1022,3 hPa 0,0 l/m 8,7 km/h (2 Bft) SW 232 0 min 0,000 mm 0,0 UV-I 59 W/m 9,8 C 10,0 C 14,5 km/h (3 Bft) 97,37 %
03.10.2016 17:54 11,6 C 89 % 1022,2 hPa 0,0 l/m 9,7 km/h (2 Bft) SW 221 0 min 0,000 mm 0,0 UV-I 48 W/m 9,8 C 9,5 C 14,5 km/h (3 Bft) 100,00 %
03.10.2016 17:56 11,6 C 89 % 1022,3 hPa 0,0 l/m 9,5 km/h (2 Bft) W-SW 243 0 min 0,000 mm 0,0 UV-I 31 W/m 9,8 C 9,6 C 14,5 km/h (3 Bft) 100,00 %
03.10.2016 17:58 11,6 C 89 % 1022,3 hPa 0,0 l/m 7,6 km/h (2 Bft) W 259 0 min 0,000 mm 0,0 UV-I 23 W/m 9,8 C 10,8 C 11,3 km/h (2 Bft) 97,87 %
03.10.2016 18:00 11,6 C 88 % 1022,3 hPa 0,0 l/m 12,5 km/h (3 Bft) S-SW 209 0 min 0,051 mm 0,0 UV-I 19 W/m 9,7 C 8,1 C 20,9 km/h (4 Bft) 100,00 %
03.10.2016 18:02 11,6 C 88 % 1022,3 hPa 0,0 l/m 12,5 km/h (3 Bft) W-SW 249 0 min 0,000 mm 0,0 UV-I 14 W/m 9,7 C 8,1 C 19,3 km/h (3 Bft) 100,00 %
03.10.2016 18:04 11,6 C 88 % 1022,3 hPa 0,0 l/m 10,1 km/h (2 Bft) W 259 0 min 0,000 mm 0,0 UV-I 14 W/m 9,7 C 9,3 C 16,1 km/h (3 Bft) 100,00 %
03.10.2016 18:06 11,6 C 88 % 1022,4 hPa 0,0 l/m 9,3 km/h (2 Bft) W-SW 248 0 min 0,000 mm 0,0 UV-I 11 W/m 9,7 C 9,8 C 14,5 km/h (3 Bft) 100,00 %
03.10.2016 18:08 11,6 C 89 % 1022,4 hPa 0,0 l/m 9,5 km/h (2 Bft) SW 221 0 min 0,000 mm 0,0 UV-I 9 W/m 9,8 C 9,6 C 14,5 km/h (3 Bft) 100,00 %
03.10.2016 18:10 11,6 C 88 % 1022,5 hPa 0,0 l/m 10,5 km/h (2 Bft) W-SW 244 0 min 0,000 mm 0,0 UV-I 9 W/m 9,7 C 9,1 C 16,1 km/h (3 Bft) 100,00 %
03.10.2016 18:12 11,5 C 89 % 1022,6 hPa 0,0 l/m 11,8 km/h (2 Bft) SW 235 0 min 0,000 mm 0,0 UV-I 12 W/m 9,8 C 8,3 C 20,9 km/h (4 Bft) 100,00 %
03.10.2016 18:14 11,5 C 89 % 1022,5 hPa 0,2 l/m 13,7 km/h (3 Bft) S-SW 210 0 min 0,000 mm 0,0 UV-I 19 W/m 9,8 C 7,5 C 25,7 km/h (4 Bft) 100,00 %
03.10.2016 18:16 11,4 C 89 % 1022,5 hPa 0,0 l/m 19,7 km/h (3 Bft) W-SW 252 0 min 0,000 mm 0,0 UV-I 21 W/m 9,7 C 5,2 C 27,4 km/h (4 Bft) 100,00 %
03.10.2016 18:18 11,3 C 88 % 1022,5 hPa 0,0 l/m 18,6 km/h (3 Bft) W-SW 247 0 min 0,000 mm 0,0 UV-I 16 W/m 9,4 C 5,4 C 32,2 km/h (5 Bft) 97,14 %
03.10.2016 18:20 11,2 C 88 % 1022,5 hPa 0,0 l/m 17,3 km/h (3 Bft) W-SW 257 0 min 0,000 mm 0,0 UV-I 14 W/m 9,3 C 5,7 C 24,1 km/h (4 Bft) 100,00 %
03.10.2016 18:22 11,2 C 88 % 1022,5 hPa 0,0 l/m 15,2 km/h (3 Bft) S-SW 213 0 min 0,000 mm 0,0 UV-I 15 W/m 9,3 C 6,5 C 22,5 km/h (4 Bft) 100,00 %
03.10.2016 18:24 11,1 C 88 % 1022,4 hPa 0,0 l/m 15,3 km/h (3 Bft) W 266 0 min 0,000 mm 0,0 UV-I 14 W/m 9,2 C 6,3 C 22,5 km/h (4 Bft) 98,11 %
03.10.2016 18:26 11,0 C 89 % 1022,5 hPa 0,0 l/m 12,3 km/h (3 Bft) W 261 2 min 0,000 mm 0,0 UV-I 12 W/m 9,3 C 7,5 C 20,9 km/h (4 Bft) 97,56 %
03.10.2016 18:28 10,9 C 89 % 1022,5 hPa 0,0 l/m 15,4 km/h (3 Bft) SW 234 2 min 0,000 mm 0,0 UV-I 10 W/m 9,2 C 6,1 C 24,1 km/h (4 Bft) 100,00 %
03.10.2016 18:30 10,9 C 89 % 1022,6 hPa 0,0 l/m 13,8 km/h (3 Bft) W-SW 246 0 min 0,000 mm 0,0 UV-I 7 W/m 9,2 C 6,7 C 19,3 km/h (3 Bft) 100,00 %
03.10.2016 18:32 10,9 C 89 % 1022,5 hPa 0,0 l/m 16,4 km/h (3 Bft) W 259 0 min 0,000 mm 0,0 UV-I 7 W/m 9,2 C 5,7 C 29,0 km/h (5 Bft) 100,00 %
03.10.2016 18:34 10,9 C 90 % 1022,6 hPa 0,0 l/m 15,2 km/h (3 Bft) W 264 0 min 0,000 mm 0,0 UV-I 7 W/m 9,3 C 6,1 C 19,3 km/h (3 Bft) 100,00 %
03.10.2016 18:36 10,8 C 90 % 1022,6 hPa 0,0 l/m 10,7 km/h (2 Bft) W-SW 247 0 min 0,000 mm 0,0 UV-I 3 W/m 9,2 C 8,1 C 16,1 km/h (3 Bft) 100,00 %
03.10.2016 18:38 10,8 C 90 % 1022,7 hPa 0,0 l/m 11,8 km/h (2 Bft) W-SW 254 0 min 0,000 mm 0,0 UV-I 0 W/m 9,2 C 7,5 C 19,3 km/h (3 Bft) 97,78 %
03.10.2016 18:40 10,8 C 90 % 1022,8 hPa 0,0 l/m 7,0 km/h (2 Bft) W 261 0 min 0,000 mm 0,0 UV-I 0 W/m 9,2 C 10,4 C 11,3 km/h (2 Bft) 100,00 %
03.10.2016 18:42 10,8 C 90 % 1022,7 hPa 0,0 l/m 7,5 km/h (2 Bft) W-SW 249 0 min 0,000 mm 0,0 UV-I 0 W/m 9,2 C 10,0 C 14,5 km/h (3 Bft) 97,44 %
03.10.2016 18:44 10,8 C 90 % 1022,8 hPa 0,0 l/m 5,1 km/h (1 Bft) W 269 0 min 0,000 mm 0,0 UV-I 0 W/m 9,2 C 10,8 C 9,7 km/h (2 Bft) 97,87 %
03.10.2016 18:46 10,8 C 91 % 1022,8 hPa 0,0 l/m 4,2 km/h (1 Bft) W-SW 257 0 min 0,000 mm 0,0 UV-I 0 W/m 9,4 C 10,8 C 6,4 km/h (2 Bft) 100,00 %
03.10.2016 18:48 10,8 C 91 % 1022,9 hPa 0,0 l/m 7,4 km/h (2 Bft) W-SW 248 0 min 0,000 mm 0,0 UV-I 0 W/m 9,4 C 10,1 C 12,9 km/h (3 Bft) 100,00 %
03.10.2016 18:50 10,7 C 91 % 1022,9 hPa 0,0 l/m 5,2 km/h (1 Bft) W 266 0 min 0,000 mm 0,0 UV-I 0 W/m 9,3 C 10,7 C 9,7 km/h (2 Bft) 100,00 %
03.10.2016 18:52 10,7 C 91 % 1022,9 hPa 0,0 l/m 3,8 km/h (1 Bft) W 275 0 min 0,000 mm 0,0 UV-I 0 W/m 9,3 C 10,7 C 4,8 km/h (1 Bft) 98,11 %
03.10.2016 18:54 10,7 C 92 % 1022,9 hPa 0,0 l/m 7,6 km/h (2 Bft) W 280 0 min 0,000 mm 0,0 UV-I 0 W/m 9,5 C 9,9 C 11,3 km/h (2 Bft) 97,73 %
03.10.2016 18:56 10,7 C 92 % 1022,9 hPa 0,0 l/m 5,1 km/h (1 Bft) W-NW 285 0 min 0,000 mm 0,0 UV-I 0 W/m 9,5 C 10,7 C 9,7 km/h (2 Bft) 97,87 %
03.10.2016 18:58 10,7 C 92 % 1023,0 hPa 0,0 l/m 6,3 km/h (2 Bft) W-SW 252 0 min 0,000 mm 0,0 UV-I 0 W/m 9,5 C 10,7 C 12,9 km/h (3 Bft) 97,87 %
03.10.2016 19:00 10,7 C 92 % 1023,0 hPa 0,0 l/m 5,0 km/h (1 Bft) W 259 0 min 0,025 mm 0,0 UV-I 0 W/m 9,5 C 10,7 C 9,7 km/h (2 Bft) 96,00 %
03.10.2016 19:02 10,7 C 92 % 1023,0 hPa 0,0 l/m 4,1 km/h (1 Bft) W 278 0 min 0,000 mm 0,0 UV-I 0 W/m 9,5 C 10,7 C 6,4 km/h (2 Bft) 93,62 %
03.10.2016 19:04 10,7 C 93 % 1023,2 hPa 0,0 l/m 3,4 km/h (1 Bft) N 355 0 min 0,000 mm 0,0 UV-I 0 W/m 9,6 C 10,7 C 6,4 km/h (2 Bft) 98,00 %
03.10.2016 19:06 10,7 C 93 % 1023,2 hPa 0,0 l/m 4,2 km/h (1 Bft) NW 304 0 min 0,000 mm 0,0 UV-I 0 W/m 9,6 C 10,7 C 12,9 km/h (3 Bft) 97,37 %
03.10.2016 19:08 10,7 C 93 % 1023,3 hPa 0,0 l/m 5,9 km/h (2 Bft) NW 315 0 min 0,000 mm 0,0 UV-I 0 W/m 9,6 C 10,7 C 20,9 km/h (4 Bft) 95,12 %
03.10.2016 19:10 10,6 C 92 % 1023,3 hPa 0,0 l/m 3,7 km/h (1 Bft) W 279 0 min 0,000 mm 0,0 UV-I 0 W/m 9,4 C 10,6 C 11,3 km/h (2 Bft) 98,18 %
03.10.2016 19:12 10,5 C 92 % 1023,4 hPa 0,0 l/m 6,6 km/h (2 Bft) W-SW 258 0 min 0,000 mm 0,0 UV-I 0 W/m 9,3 C 10,4 C 14,5 km/h (3 Bft) 98,00 %
03.10.2016 19:14 10,4 C 92 % 1023,4 hPa 0,0 l/m 7,4 km/h (2 Bft) W-NW 293 0 min 0,000 mm 0,0 UV-I 0 W/m 9,2 C 9,7 C 16,1 km/h (3 Bft) 95,74 %
03.10.2016 19:16 10,4 C 92 % 1023,4 hPa 0,0 l/m 6,4 km/h (2 Bft) W-SW 243 0 min 0,000 mm 0,0 UV-I 0 W/m 9,2 C 10,4 C 14,5 km/h (3 Bft) 97,87 %
03.10.2016 19:18 10,3 C 91 % 1023,5 hPa 0,0 l/m 7,4 km/h (2 Bft) SW 234 0 min 0,000 mm 0,0 UV-I 0 W/m 8,9 C 9,6 C 11,3 km/h (2 Bft) 97,44 %
03.10.2016 19:20 10,3 C 91 % 1023,5 hPa 0,0 l/m 10,8 km/h (2 Bft) W 273 0 min 0,000 mm 0,0 UV-I 0 W/m 8,9 C 7,5 C 19,3 km/h (3 Bft) 97,56 %
03.10.2016 19:22 10,3 C 91 % 1023,7 hPa 0,0 l/m 10,1 km/h (2 Bft) W-SW 248 0 min 0,000 mm 0,0 UV-I 0 W/m 8,9 C 7,9 C 20,9 km/h (4 Bft) 96,23 %
03.10.2016 19:24 10,2 C 91 % 1023,6 hPa 0,0 l/m 7,4 km/h (2 Bft) W 278 0 min 0,000 mm 0,0 UV-I 0 W/m 8,8 C 9,5 C 11,3 km/h (2 Bft) 98,11 %
03.10.2016 19:26 10,2 C 92 % 1023,6 hPa 0,2 l/m 8,0 km/h (2 Bft) NW 319 0 min 0,000 mm 0,0 UV-I 0 W/m 9,0 C 9,1 C 14,5 km/h (3 Bft) 100,00 %
03.10.2016 19:28 10,2 C 92 % 1023,6 hPa 0,0 l/m 7,2 km/h (2 Bft) W 263 0 min 0,000 mm 0,0 UV-I 0 W/m 9,0 C 9,6 C 12,9 km/h (3 Bft) 97,37 %
03.10.2016 19:30 10,2 C 92 % 1023,5 hPa 0,0 l/m 9,9 km/h (2 Bft) W-SW 248 0 min 0,000 mm 0,0 UV-I 0 W/m 9,0 C 7,9 C 16,1 km/h (3 Bft) 98,00 %
03.10.2016 19:32 10,1 C 92 % 1023,5 hPa 0,0 l/m 10,0 km/h (2 Bft) W-NW 289 0 min 0,000 mm 0,0 UV-I 0 W/m 8,9 C 7,7 C 16,1 km/h (3 Bft) 100,00 %
03.10.2016 19:34 10,1 C 92 % 1023,6 hPa 0,0 l/m 10,7 km/h (2 Bft) W-SW 247 0 min 0,000 mm 0,0 UV-I 0 W/m 8,9 C 7,3 C 17,7 km/h (3 Bft) 98,11 %
03.10.2016 19:36 10,1 C 92 % 1023,5 hPa 0,0 l/m 10,0 km/h (2 Bft) W 271 0 min 0,000 mm 0,0 UV-I 0 W/m 8,9 C 7,7 C 19,3 km/h (3 Bft) 100,00 %
03.10.2016 19:39 10,1 C 92 % 1023,5 hPa 0,0 l/m 9,0 km/h (2 Bft) W 266 0 min 0,000 mm 0,0 UV-I 0 W/m 8,9 C 8,3 C 16,1 km/h (3 Bft) 100,00 %
03.10.2016 19:40 10,0 C 92 % 1023,5 hPa 0,0 l/m 7,0 km/h (2 Bft) W 259 0 min 0,000 mm 0,0 UV-I 0 W/m 8,8 C 9,6 C 14,5 km/h (3 Bft) 100,00 %
03.10.2016 19:42 10,0 C 92 % 1023,6 hPa 0,0 l/m 10,6 km/h (2 Bft) N-NW 339 0 min 0,000 mm 0,0 UV-I 0 W/m 8,8 C 7,3 C 17,7 km/h (3 Bft) 100,00 %
03.10.2016 19:44 10,0 C 91 % 1023,6 hPa 0,0 l/m 8,4 km/h (2 Bft) W-SW 245 0 min 0,000 mm 0,0 UV-I 0 W/m 8,6 C 8,6 C 17,7 km/h (3 Bft) 100,00 %
03.10.2016 19:46 10,0 C 92 % 1023,6 hPa 0,0 l/m 10,1 km/h (2 Bft) W-SW 244 0 min 0,000 mm 0,0 UV-I 0 W/m 8,8 C 7,5 C 16,1 km/h (3 Bft) 97,73 %
03.10.2016 19:48 10,0 C 92 % 1023,5 hPa 0,0 l/m 9,5 km/h (2 Bft) W-SW 248 0 min 0,000 mm 0,0 UV-I 0 W/m 8,8 C 7,9 C 12,9 km/h (3 Bft) 100,00 %
03.10.2016 19:50 10,0 C 92 % 1023,6 hPa 0,0 l/m 9,9 km/h (2 Bft) W-SW 249 0 min 0,000 mm 0,0 UV-I 0 W/m 8,8 C 7,7 C 17,7 km/h (3 Bft) 98,44 %
03.10.2016 19:52 10,0 C 92 % 1023,6 hPa 0,0 l/m 10,0 km/h (2 Bft) W 275 0 min 0,000 mm 0,0 UV-I 0 W/m 8,8 C 7,6 C 14,5 km/h (3 Bft) 100,00 %
03.10.2016 19:54 10,0 C 92 % 1023,5 hPa 0,0 l/m 8,3 km/h (2 Bft) W-SW 238 0 min 0,000 mm 0,0 UV-I 0 W/m 8,8 C 8,7 C 14,5 km/h (3 Bft) 98,00 %
03.10.2016 19:56 10,0 C 92 % 1023,6 hPa 0,0 l/m 10,8 km/h (2 Bft) W-SW 237 0 min 0,000 mm 0,0 UV-I 0 W/m 8,8 C 7,1 C 16,1 km/h (3 Bft) 100,00 %
03.10.2016 19:58 10,0 C 92 % 1023,5 hPa 0,0 l/m 8,7 km/h (2 Bft) W-SW 245 0 min 0,000 mm 0,0 UV-I 0 W/m 8,8 C 8,4 C 17,7 km/h (3 Bft) 98,00 %
03.10.2016 20:00 10,0 C 92 % 1023,6 hPa 0,0 l/m 13,4 km/h (3 Bft) W 268 0 min 0,000 mm 0,0 UV-I 0 W/m 8,8 C 5,8 C 17,7 km/h (3 Bft) 100,00 %
03.10.2016 20:02 10,0 C 91 % 1023,5 hPa 0,0 l/m 10,5 km/h (2 Bft) W 261 0 min 0,000 mm 0,0 UV-I 0 W/m 8,6 C 7,3 C 17,7 km/h (3 Bft) 100,00 %
03.10.2016 20:04 10,0 C 91 % 1023,5 hPa 0,0 l/m 10,3 km/h (2 Bft) W 263 0 min 0,000 mm 0,0 UV-I 0 W/m 8,6 C 7,4 C 16,1 km/h (3 Bft) 98,11 %
03.10.2016 20:06 10,0 C 91 % 1023,6 hPa 0,0 l/m 11,1 km/h (2 Bft) W 271 0 min 0,000 mm 0,0 UV-I 0 W/m 8,6 C 7,0 C 16,1 km/h (3 Bft) 100,00 %
03.10.2016 20:08 10,0 C 91 % 1023,6 hPa 0,0 l/m 8,1 km/h (2 Bft) W 274 0 min 0,000 mm 0,0 UV-I 0 W/m 8,6 C 8,8 C 12,9 km/h (3 Bft) 100,00 %
03.10.2016 20:10 10,1 C 91 % 1023,6 hPa 0,0 l/m 9,5 km/h (2 Bft) W 265 0 min 0,000 mm 0,0 UV-I 0 W/m 8,7 C 8,0 C 20,9 km/h (4 Bft) 98,00 %
03.10.2016 20:12 10,0 C 91 % 1023,6 hPa 0,0 l/m 13,9 km/h (3 Bft) SW 236 0 min 0,000 mm 0,0 UV-I 0 W/m 8,6 C 5,6 C 25,7 km/h (4 Bft) 100,00 %
03.10.2016 20:14 10,1 C 90 % 1023,6 hPa 0,0 l/m 13,4 km/h (3 Bft) W-NW 299 0 min 0,000 mm 0,0 UV-I 0 W/m 8,5 C 6,0 C 20,9 km/h (4 Bft) 100,00 %
03.10.2016 20:16 10,1 C 90 % 1023,6 hPa 0,0 l/m 12,0 km/h (2 Bft) W-SW 242 0 min 0,000 mm 0,0 UV-I 0 W/m 8,5 C 6,6 C 20,9 km/h (4 Bft) 100,00 %
03.10.2016 20:18 10,1 C 90 % 1023,7 hPa 0,0 l/m 10,2 km/h (2 Bft) SW 222 0 min 0,000 mm 0,0 UV-I 0 W/m 8,5 C 7,6 C 14,5 km/h (3 Bft) 97,87 %
03.10.2016 20:20 10,1 C 89 % 1023,7 hPa 0,0 l/m 11,4 km/h (2 Bft) W-SW 246 0 min 0,000 mm 0,0 UV-I 0 W/m 8,4 C 6,9 C 20,9 km/h (4 Bft) 98,21 %
03.10.2016 20:22 10,1 C 89 % 1023,7 hPa 0,0 l/m 12,1 km/h (2 Bft) W 265 0 min 0,000 mm 0,0 UV-I 0 W/m 8,4 C 6,6 C 17,7 km/h (3 Bft) 97,73 %
03.10.2016 20:24 10,1 C 89 % 1023,7 hPa 0,0 l/m 13,9 km/h (3 Bft) W 267 0 min 0,000 mm 0,0 UV-I 0 W/m 8,4 C 5,7 C 22,5 km/h (4 Bft) 100,00 %
03.10.2016 20:26 10,1 C 89 % 1023,8 hPa 0,0 l/m 12,8 km/h (3 Bft) W-SW 240 0 min 0,000 mm 0,0 UV-I 0 W/m 8,4 C 6,2 C 19,3 km/h (3 Bft) 100,00 %
03.10.2016 20:28 10,1 C 89 % 1023,7 hPa 0,0 l/m 13,8 km/h (3 Bft) W-SW 252 0 min 0,000 mm 0,0 UV-I 0 W/m 8,4 C 5,8 C 19,3 km/h (3 Bft) 98,31 %
03.10.2016 20:30 10,1 C 89 % 1023,8 hPa 0,0 l/m 11,6 km/h (2 Bft) W-SW 248 0 min 0,000 mm 0,0 UV-I 0 W/m 8,4 C 6,8 C 16,1 km/h (3 Bft) 100,00 %
03.10.2016 20:32 10,1 C 89 % 1023,8 hPa 0,0 l/m 11,8 km/h (2 Bft) W-SW 237 0 min 0,000 mm 0,0 UV-I 0 W/m 8,4 C 6,7 C 17,7 km/h (3 Bft) 100,00 %
03.10.2016 20:34 10,1 C 89 % 1023,8 hPa 0,0 l/m 11,7 km/h (2 Bft) W-SW 256 0 min 0,000 mm 0,0 UV-I 0 W/m 8,4 C 6,8 C 17,7 km/h (3 Bft) 100,00 %
03.10.2016 20:36 10,1 C 89 % 1023,8 hPa 0,0 l/m 12,1 km/h (2 Bft) W-SW 243 0 min 0,000 mm 0,0 UV-I 0 W/m 8,4 C 6,6 C 16,1 km/h (3 Bft) 98,11 %
03.10.2016 20:38 10,1 C 88 % 1023,8 hPa 0,0 l/m 10,2 km/h (2 Bft) SW 233 0 min 0,000 mm 0,0 UV-I 0 W/m 8,2 C 7,6 C 17,7 km/h (3 Bft) 100,00 %
03.10.2016 20:40 10,1 C 88 % 1023,9 hPa 0,0 l/m 11,2 km/h (2 Bft) W-SW 252 0 min 0,000 mm 0,0 UV-I 0 W/m 8,2 C 7,0 C 16,1 km/h (3 Bft) 100,00 %
03.10.2016 20:42 10,1 C 88 % 1023,9 hPa 0,0 l/m 7,3 km/h (2 Bft) W-SW 244 0 min 0,000 mm 0,0 UV-I 0 W/m 8,2 C 9,4 C 16,1 km/h (3 Bft) 96,00 %
03.10.2016 20:44 10,1 C 89 % 1024,0 hPa 0,0 l/m 9,6 km/h (2 Bft) W 264 0 min 0,000 mm 0,0 UV-I 0 W/m 8,4 C 7,9 C 16,1 km/h (3 Bft) 100,00 %
03.10.2016 20:46 10,1 C 88 % 1024,0 hPa 0,0 l/m 13,0 km/h (3 Bft) W-SW 247 0 min 0,000 mm 0,0 UV-I 0 W/m 8,2 C 6,1 C 17,7 km/h (3 Bft) 98,11 %
03.10.2016 20:48 10,1 C 88 % 1024,0 hPa 0,0 l/m 9,9 km/h (2 Bft) SW 218 0 min 0,000 mm 0,0 UV-I 0 W/m 8,2 C 7,8 C 14,5 km/h (3 Bft) 100,00 %
03.10.2016 20:50 10,1 C 88 % 1024,0 hPa 0,0 l/m 11,3 km/h (2 Bft) W 264 0 min 0,000 mm 0,0 UV-I 0 W/m 8,2 C 7,0 C 16,1 km/h (3 Bft) 100,00 %
03.10.2016 20:52 10,1 C 88 % 1024,0 hPa 0,0 l/m 11,0 km/h (2 Bft) S-SW 207 0 min 0,000 mm 0,0 UV-I 0 W/m 8,2 C 7,1 C 19,3 km/h (3 Bft) 98,21 %
03.10.2016 20:54 10,1 C 88 % 1024,0 hPa 0,0 l/m 12,2 km/h (2 Bft) W-SW 251 0 min 0,000 mm 0,0 UV-I 0 W/m 8,2 C 6,5 C 24,1 km/h (4 Bft) 95,74 %
03.10.2016 20:56 10,1 C 88 % 1024,0 hPa 0,0 l/m 11,8 km/h (2 Bft) SW 232 0 min 0,000 mm 0,0 UV-I 0 W/m 8,2 C 6,7 C 17,7 km/h (3 Bft) 98,00 %
03.10.2016 20:58 10,1 C 88 % 1024,0 hPa 0,0 l/m 14,1 km/h (3 Bft) W-SW 241 0 min 0,000 mm 0,0 UV-I 0 W/m 8,2 C 5,6 C 20,9 km/h (4 Bft) 94,29 %
03.10.2016 21:00 10,2 C 88 % 1024,0 hPa 0,0 l/m 12,6 km/h (3 Bft) W-SW 237 0 min 0,000 mm 0,0 UV-I 0 W/m 8,3 C 6,5 C 17,7 km/h (3 Bft) 94,64 %
03.10.2016 21:02 10,2 C 88 % 1024,0 hPa 0,0 l/m 9,3 km/h (2 Bft) W 273 0 min 0,026 mm 0,0 UV-I 0 W/m 8,3 C 8,2 C 14,5 km/h (3 Bft) 95,12 %
03.10.2016 21:04 10,2 C 88 % 1024,1 hPa 0,0 l/m 11,5 km/h (2 Bft) W-SW 248 0 min 0,000 mm 0,0 UV-I 0 W/m 8,3 C 7,0 C 16,1 km/h (3 Bft) 96,23 %
03.10.2016 21:06 10,2 C 88 % 1024,0 hPa 0,0 l/m 8,6 km/h (2 Bft) W-SW 239 0 min 0,000 mm 0,0 UV-I 0 W/m 8,3 C 8,7 C 14,5 km/h (3 Bft) 94,00 %
03.10.2016 21:08 10,2 C 88 % 1024,0 hPa 0,0 l/m 9,3 km/h (2 Bft) W-SW 250 0 min 0,000 mm 0,0 UV-I 0 W/m 8,3 C 8,2 C 14,5 km/h (3 Bft) 97,37 %
03.10.2016 21:10 10,2 C 88 % 1024,0 hPa 0,0 l/m 10,8 km/h (2 Bft) W-NW 291 0 min 0,000 mm 0,0 UV-I 0 W/m 8,3 C 7,4 C 14,5 km/h (3 Bft) 97,87 %
03.10.2016 21:12 10,2 C 88 % 1024,1 hPa 0,0 l/m 8,0 km/h (2 Bft) W-SW 252 0 min 0,000 mm 0,0 UV-I 0 W/m 8,3 C 9,1 C 12,9 km/h (3 Bft) 98,00 %
03.10.2016 21:14 10,2 C 88 % 1024,0 hPa 0,0 l/m 11,1 km/h (2 Bft) W-SW 255 0 min 0,000 mm 0,0 UV-I 0 W/m 8,3 C 7,2 C 16,1 km/h (3 Bft) 97,62 %
03.10.2016 21:16 10,2 C 88 % 1024,1 hPa 0,0 l/m 9,5 km/h (2 Bft) W 265 0 min 0,000 mm 0,0 UV-I 0 W/m 8,3 C 8,1 C 14,5 km/h (3 Bft) 98,11 %
03.10.2016 21:18 10,1 C 88 % 1024,1 hPa 0,0 l/m 10,5 km/h (2 Bft) W 262 0 min 0,000 mm 0,0 UV-I 0 W/m 8,2 C 7,4 C 14,5 km/h (3 Bft) 97,56 %
03.10.2016 21:20 10,2 C 88 % 1024,1 hPa 0,0 l/m 9,7 km/h (2 Bft) W 263 0 min 0,000 mm 0,0 UV-I 0 W/m 8,3 C 8,0 C 14,5 km/h (3 Bft) 97,37 %
03.10.2016 21:22 10,2 C 88 % 1024,2 hPa 0,0 l/m 11,3 km/h (2 Bft) W-SW 240 0 min 0,000 mm 0,0 UV-I 0 W/m 8,3 C 7,1 C 19,3 km/h (3 Bft) 96,23 %
03.10.2016 21:24 10,2 C 88 % 1024,1 hPa 0,0 l/m 14,6 km/h (3 Bft) W-SW 243 0 min 0,000 mm 0,0 UV-I 0 W/m 8,3 C 5,5 C 20,9 km/h (4 Bft) 98,00 %
03.10.2016 21:26 10,2 C 88 % 1024,1 hPa 0,0 l/m 12,5 km/h (3 Bft) SW 232 0 min 0,000 mm 0,0 UV-I 0 W/m 8,3 C 6,5 C 17,7 km/h (3 Bft) 96,00 %
03.10.2016 21:28 10,2 C 88 % 1024,1 hPa 0,0 l/m 10,2 km/h (2 Bft) W-SW 258 0 min 0,000 mm 0,0 UV-I 0 W/m 8,3 C 7,7 C 16,1 km/h (3 Bft) 95,45 %
03.10.2016 21:30 10,2 C 88 % 1024,2 hPa 0,0 l/m 9,1 km/h (2 Bft) W-SW 248 0 min 0,000 mm 0,0 UV-I 0 W/m 8,3 C 8,4 C 14,5 km/h (3 Bft) 98,00 %
03.10.2016 21:32 10,2 C 88 % 1024,1 hPa 0,0 l/m 12,0 km/h (2 Bft) W-SW 244 0 min 0,000 mm 0,0 UV-I 0 W/m 8,3 C 6,7 C 17,7 km/h (3 Bft) 98,11 %
03.10.2016 21:34 10,1 C 88 % 1024,1 hPa 0,0 l/m 11,3 km/h (2 Bft) SW 220 0 min 0,000 mm 0,0 UV-I 0 W/m 8,2 C 7,0 C 17,7 km/h (3 Bft) 100,00 %
03.10.2016 21:36 10,1 C 88 % 1024,1 hPa 0,0 l/m 7,0 km/h (2 Bft) S-SW 213 0 min 0,000 mm 0,0 UV-I 0 W/m 8,2 C 9,7 C 11,3 km/h (2 Bft) 100,00 %
03.10.2016 21:38 10,1 C 89 % 1024,1 hPa 0,0 l/m 8,8 km/h (2 Bft) W-SW 245 0 min 0,000 mm 0,0 UV-I 0 W/m 8,4 C 8,4 C 14,5 km/h (3 Bft) 100,00 %
03.10.2016 21:40 10,1 C 89 % 1024,1 hPa 0,0 l/m 8,8 km/h (2 Bft) W-SW 256 0 min 0,000 mm 0,0 UV-I 0 W/m 8,4 C 8,4 C 14,5 km/h (3 Bft) 100,00 %
03.10.2016 21:42 10,1 C 89 % 1024,2 hPa 0,0 l/m 8,1 km/h (2 Bft) W-SW 258 0 min 0,000 mm 0,0 UV-I 0 W/m 8,4 C 8,9 C 12,9 km/h (3 Bft) 100,00 %
03.10.2016 21:44 10,0 C 89 % 1024,1 hPa 0,0 l/m 10,6 km/h (2 Bft) SW 236 0 min 0,000 mm 0,0 UV-I 0 W/m 8,3 C 7,3 C 16,1 km/h (3 Bft) 100,00 %
03.10.2016 21:46 10,0 C 89 % 1024,1 hPa 0,0 l/m 10,3 km/h (2 Bft) W-SW 239 0 min 0,000 mm 0,0 UV-I 0 W/m 8,3 C 7,4 C 14,5 km/h (3 Bft) 98,00 %
03.10.2016 21:48 10,0 C 89 % 1024,2 hPa 0,0 l/m 10,2 km/h (2 Bft) W-SW 253 0 min 0,000 mm 0,0 UV-I 0 W/m 8,3 C 7,5 C 14,5 km/h (3 Bft) 100,00 %
03.10.2016 21:50 9,9 C 89 % 1024,2 hPa 0,0 l/m 7,2 km/h (2 Bft) SW 234 0 min 0,000 mm 0,0 UV-I 0 W/m 8,2 C 9,3 C 11,3 km/h (2 Bft) 100,00 %
03.10.2016 21:52 9,9 C 90 % 1024,2 hPa 0,0 l/m 9,2 km/h (2 Bft) W-SW 242 0 min 0,000 mm 0,0 UV-I 0 W/m 8,3 C 8,0 C 14,5 km/h (3 Bft) 100,00 %
03.10.2016 21:54 9,9 C 89 % 1024,2 hPa 0,0 l/m 8,8 km/h (2 Bft) W 267 0 min 0,000 mm 0,0 UV-I 0 W/m 8,2 C 8,2 C 14,5 km/h (3 Bft) 100,00 %
03.10.2016 21:56 9,9 C 89 % 1024,2 hPa 0,0 l/m 9,8 km/h (2 Bft) S-SW 213 0 min 0,000 mm 0,0 UV-I 0 W/m 8,2 C 7,6 C 17,7 km/h (3 Bft) 97,87 %
03.10.2016 21:58 9,9 C 89 % 1024,1 hPa 0,0 l/m 8,7 km/h (2 Bft) SW 232 0 min 0,000 mm 0,0 UV-I 0 W/m 8,2 C 8,3 C 14,5 km/h (3 Bft) 100,00 %
03.10.2016 22:00 9,9 C 89 % 1024,1 hPa 0,0 l/m 10,0 km/h (2 Bft) W 261 0 min 0,000 mm 0,0 UV-I 0 W/m 8,2 C 7,5 C 16,1 km/h (3 Bft) 100,00 %
03.10.2016 22:02 9,9 C 89 % 1024,1 hPa 0,0 l/m 10,5 km/h (2 Bft) SW 234 0 min 0,025 mm 0,0 UV-I 0 W/m 8,2 C 7,2 C 14,5 km/h (3 Bft) 100,00 %
03.10.2016 22:04 9,9 C 89 % 1024,1 hPa 0,0 l/m 9,4 km/h (2 Bft) W-SW 256 0 min 0,000 mm 0,0 UV-I 0 W/m 8,2 C 7,8 C 12,9 km/h (3 Bft) 100,00 %
03.10.2016 22:06 9,9 C 89 % 1024,1 hPa 0,0 l/m 9,4 km/h (2 Bft) W-SW 248 0 min 0,000 mm 0,0 UV-I 0 W/m 8,2 C 7,8 C 17,7 km/h (3 Bft) 98,00 %
03.10.2016 22:08 9,9 C 90 % 1024,2 hPa 0,0 l/m 11,2 km/h (2 Bft) W-SW 237 0 min 0,000 mm 0,0 UV-I 0 W/m 8,3 C 6,8 C 17,7 km/h (3 Bft) 100,00 %
03.10.2016 22:10 10,0 C 90 % 1024,1 hPa 0,0 l/m 10,0 km/h (2 Bft) W-SW 254 0 min 0,000 mm 0,0 UV-I 0 W/m 8,4 C 7,6 C 17,7 km/h (3 Bft) 97,87 %
03.10.2016 22:12 10,0 C 90 % 1024,1 hPa 0,0 l/m 12,1 km/h (2 Bft) S 186 0 min 0,000 mm 0,0 UV-I 0 W/m 8,4 C 6,5 C 16,1 km/h (3 Bft) 94,74 %
03.10.2016 22:14 10,0 C 90 % 1024,2 hPa 0,0 l/m 12,4 km/h (3 Bft) W-SW 247 0 min 0,000 mm 0,0 UV-I 0 W/m 8,4 C 6,3 C 19,3 km/h (3 Bft) 100,00 %
03.10.2016 22:16 10,0 C 89 % 1024,2 hPa 0,0 l/m 13,7 km/h (3 Bft) W 271 0 min 0,000 mm 0,0 UV-I 0 W/m 8,3 C 5,7 C 17,7 km/h (3 Bft) 97,56 %
03.10.2016 22:18 10,0 C 89 % 1024,2 hPa 0,0 l/m 12,8 km/h (3 Bft) W-SW 250 0 min 0,000 mm 0,0 UV-I 0 W/m 8,3 C 6,1 C 17,7 km/h (3 Bft) 100,00 %
03.10.2016 22:20 10,0 C 89 % 1024,2 hPa 0,0 l/m 13,2 km/h (3 Bft) SW 223 0 min 0,000 mm 0,0 UV-I 0 W/m 8,3 C 5,9 C 19,3 km/h (3 Bft) 98,11 %
03.10.2016 22:22 10,0 C 89 % 1024,2 hPa 0,0 l/m 15,1 km/h (3 Bft) SW 217 0 min 0,000 mm 0,0 UV-I 0 W/m 8,3 C 5,1 C 20,9 km/h (4 Bft) 100,00 %
03.10.2016 22:24 10,0 C 90 % 1024,2 hPa 0,0 l/m 13,5 km/h (3 Bft) W-SW 246 0 min 0,000 mm 0,0 UV-I 0 W/m 8,4 C 5,8 C 20,9 km/h (4 Bft) 97,87 %
03.10.2016 22:26 10,0 C 89 % 1024,2 hPa 0,0 l/m 9,3 km/h (2 Bft) SW 221 0 min 0,000 mm 0,0 UV-I 0 W/m 8,3 C 8,0 C 12,9 km/h (3 Bft) 100,00 %
03.10.2016 22:28 10,0 C 90 % 1024,2 hPa 0,0 l/m 7,9 km/h (2 Bft) SW 228 0 min 0,000 mm 0,0 UV-I 0 W/m 8,4 C 8,9 C 11,3 km/h (2 Bft) 100,00 %
03.10.2016 22:30 10,0 C 90 % 1024,2 hPa 0,0 l/m 12,4 km/h (3 Bft) W-SW 252 0 min 0,000 mm 0,0 UV-I 0 W/m 8,4 C 6,3 C 17,7 km/h (3 Bft) 98,44 %
03.10.2016 22:33 10,0 C 90 % 1024,2 hPa 0,0 l/m 10,4 km/h (2 Bft) S-SW 209 0 min 0,000 mm 0,0 UV-I 0 W/m 8,4 C 7,4 C 17,7 km/h (3 Bft) 98,59 %
03.10.2016 22:34 9,9 C 90 % 1024,2 hPa 0,0 l/m 9,0 km/h (2 Bft) W-SW 238 0 min 0,000 mm 0,0 UV-I 0 W/m 8,3 C 8,1 C 12,9 km/h (3 Bft) 95,65 %
03.10.2016 22:36 9,9 C 90 % 1024,2 hPa 0,0 l/m 9,2 km/h (2 Bft) S-SW 211 0 min 0,000 mm 0,0 UV-I 0 W/m 8,3 C 8,0 C 12,9 km/h (3 Bft) 100,00 %
03.10.2016 22:38 9,9 C 90 % 1024,2 hPa 0,0 l/m 11,4 km/h (2 Bft) SW 224 0 min 0,000 mm 0,0 UV-I 0 W/m 8,3 C 6,7 C 19,3 km/h (3 Bft) 100,00 %
03.10.2016 22:40 9,9 C 90 % 1024,1 hPa 0,0 l/m 11,4 km/h (2 Bft) SW 219 0 min 0,000 mm 0,0 UV-I 0 W/m 8,3 C 6,7 C 19,3 km/h (3 Bft) 98,00 %
03.10.2016 22:42 9,9 C 90 % 1024,1 hPa 0,0 l/m 10,3 km/h (2 Bft) W-SW 240 0 min 0,000 mm 0,0 UV-I 0 W/m 8,3 C 7,3 C 16,1 km/h (3 Bft) 100,00 %
03.10.2016 22:44 9,9 C 90 % 1024,1 hPa 0,0 l/m 9,7 km/h (2 Bft) S-SW 204 0 min 0,000 mm 0,0 UV-I 0 W/m 8,3 C 7,7 C 14,5 km/h (3 Bft) 100,00 %
03.10.2016 22:46 9,9 C 90 % 1024,1 hPa 0,0 l/m 10,0 km/h (2 Bft) SW 220 0 min 0,000 mm 0,0 UV-I 0 W/m 8,3 C 7,5 C 17,7 km/h (3 Bft) 96,23 %
03.10.2016 22:48 9,9 C 91 % 1024,2 hPa 0,0 l/m 12,4 km/h (3 Bft) W-SW 254 0 min 0,000 mm 0,0 UV-I 0 W/m 8,5 C 6,2 C 22,5 km/h (4 Bft) 100,00 %
03.10.2016 22:50 9,9 C 91 % 1024,1 hPa 0,0 l/m 11,7 km/h (2 Bft) SW 228 0 min 0,000 mm 0,0 UV-I 0 W/m 8,5 C 6,6 C 19,3 km/h (3 Bft) 98,21 %
03.10.2016 22:52 9,9 C 91 % 1024,1 hPa 0,0 l/m 14,4 km/h (3 Bft) SW 225 0 min 0,000 mm 0,0 UV-I 0 W/m 8,5 C 5,3 C 19,3 km/h (3 Bft) 97,87 %
03.10.2016 22:54 9,9 C 91 % 1024,2 hPa 0,0 l/m 15,3 km/h (3 Bft) SW 232 0 min 0,000 mm 0,0 UV-I 0 W/m 8,5 C 4,9 C 20,9 km/h (4 Bft) 100,00 %
03.10.2016 22:56 9,9 C 91 % 1024,1 hPa 0,0 l/m 9,5 km/h (2 Bft) W-SW 240 0 min 0,000 mm 0,0 UV-I 0 W/m 8,5 C 7,8 C 12,9 km/h (3 Bft) 100,00 %
03.10.2016 22:58 9,9 C 91 % 1024,1 hPa 0,0 l/m 11,2 km/h (2 Bft) SW 221 0 min 0,000 mm 0,0 UV-I 0 W/m 8,5 C 6,8 C 19,3 km/h (3 Bft) 96,15 %
03.10.2016 23:00 9,9 C 91 % 1024,0 hPa 0,0 l/m 14,1 km/h (3 Bft) W-SW 246 0 min 0,000 mm 0,0 UV-I 0 W/m 8,5 C 5,4 C 20,9 km/h (4 Bft) 98,53 %
03.10.2016 23:02 9,9 C 91 % 1024,0 hPa 0,0 l/m 13,2 km/h (3 Bft) W-SW 246 0 min 0,025 mm 0,0 UV-I 0 W/m 8,5 C 5,8 C 20,9 km/h (4 Bft) 97,56 %
03.10.2016 23:04 9,9 C 91 % 1024,0 hPa 0,0 l/m 13,1 km/h (3 Bft) W-SW 257 0 min 0,000 mm 0,0 UV-I 0 W/m 8,5 C 5,9 C 20,9 km/h (4 Bft) 95,45 %
03.10.2016 23:06 9,9 C 91 % 1024,0 hPa 0,0 l/m 14,8 km/h (3 Bft) SW 222 0 min 0,000 mm 0,0 UV-I 0 W/m 8,5 C 5,1 C 22,5 km/h (4 Bft) 98,11 %
03.10.2016 23:08 9,9 C 91 % 1024,0 hPa 0,0 l/m 12,1 km/h (2 Bft) S-SW 210 0 min 0,000 mm 0,0 UV-I 0 W/m 8,5 C 6,3 C 19,3 km/h (3 Bft) 98,00 %
03.10.2016 23:10 9,9 C 91 % 1024,0 hPa 0,0 l/m 13,4 km/h (3 Bft) W-SW 248 0 min 0,000 mm 0,0 UV-I 0 W/m 8,5 C 5,7 C 19,3 km/h (3 Bft) 95,74 %
03.10.2016 23:12 9,9 C 91 % 1024,0 hPa 0,0 l/m 12,5 km/h (3 Bft) W-SW 241 0 min 0,000 mm 0,0 UV-I 0 W/m 8,5 C 6,1 C 19,3 km/h (3 Bft) 96,30 %
03.10.2016 23:14 9,9 C 91 % 1024,1 hPa 0,0 l/m 12,9 km/h (3 Bft) W 260 0 min 0,000 mm 0,0 UV-I 0 W/m 8,5 C 6,0 C 20,9 km/h (4 Bft) 98,39 %
03.10.2016 23:16 9,9 C 91 % 1024,0 hPa 0,0 l/m 11,3 km/h (2 Bft) W-SW 252 0 min 0,000 mm 0,0 UV-I 0 W/m 8,5 C 6,8 C 17,7 km/h (3 Bft) 98,08 %
03.10.2016 23:18 9,9 C 91 % 1024,0 hPa 0,0 l/m 12,3 km/h (3 Bft) SW 217 0 min 0,000 mm 0,0 UV-I 0 W/m 8,5 C 6,2 C 16,1 km/h (3 Bft) 97,44 %
03.10.2016 23:20 9,9 C 91 % 1024,0 hPa 0,0 l/m 13,3 km/h (3 Bft) SW 218 0 min 0,000 mm 0,0 UV-I 0 W/m 8,5 C 5,8 C 19,3 km/h (3 Bft) 96,00 %
03.10.2016 23:22 9,9 C 91 % 1024,0 hPa 0,0 l/m 11,2 km/h (2 Bft) SW 225 0 min 0,000 mm 0,0 UV-I 0 W/m 8,5 C 6,8 C 17,7 km/h (3 Bft) 96,23 %
03.10.2016 23:24 9,9 C 91 % 1024,0 hPa 0,0 l/m 13,9 km/h (3 Bft) SW 230 0 min 0,000 mm 0,0 UV-I 0 W/m 8,5 C 5,5 C 19,3 km/h (3 Bft) 97,87 %
03.10.2016 23:26 9,8 C 91 % 1024,0 hPa 0,0 l/m 13,8 km/h (3 Bft) SW 229 0 min 0,000 mm 0,0 UV-I 0 W/m 8,4 C 5,4 C 20,9 km/h (4 Bft) 97,56 %
03.10.2016 23:28 9,8 C 91 % 1024,0 hPa 0,0 l/m 17,2 km/h (3 Bft) SW 221 0 min 0,000 mm 0,0 UV-I 0 W/m 8,4 C 4,0 C 24,1 km/h (4 Bft) 98,00 %
03.10.2016 23:30 9,8 C 91 % 1024,0 hPa 0,0 l/m 13,4 km/h (3 Bft) W 265 0 min 0,000 mm 0,0 UV-I 0 W/m 8,4 C 5,6 C 20,9 km/h (4 Bft) 94,29 %
03.10.2016 23:32 9,8 C 91 % 1024,0 hPa 0,0 l/m 11,6 km/h (2 Bft) SW 222 0 min 0,000 mm 0,0 UV-I 0 W/m 8,4 C 6,5 C 17,7 km/h (3 Bft) 96,43 %
03.10.2016 23:34 9,7 C 91 % 1024,0 hPa 0,0 l/m 14,7 km/h (3 Bft) W-SW 243 0 min 0,000 mm 0,0 UV-I 0 W/m 8,3 C 4,9 C 22,5 km/h (4 Bft) 97,56 %
03.10.2016 23:36 9,7 C 91 % 1024,0 hPa 0,0 l/m 14,0 km/h (3 Bft) S-SW 201 0 min 0,000 mm 0,0 UV-I 0 W/m 8,3 C 5,2 C 22,5 km/h (4 Bft) 100,00 %
03.10.2016 23:38 9,7 C 91 % 1024,0 hPa 0,0 l/m 15,0 km/h (3 Bft) W-SW 240 0 min 0,000 mm 0,0 UV-I 0 W/m 8,3 C 4,8 C 19,3 km/h (3 Bft) 100,00 %
03.10.2016 23:40 9,7 C 91 % 1024,0 hPa 0,0 l/m 14,8 km/h (3 Bft) SW 219 0 min 0,000 mm 0,0 UV-I 0 W/m 8,3 C 4,9 C 20,9 km/h (4 Bft) 97,87 %
03.10.2016 23:42 9,7 C 91 % 1023,9 hPa 0,0 l/m 13,4 km/h (3 Bft) SW 227 0 min 0,000 mm 0,0 UV-I 0 W/m 8,3 C 5,5 C 19,3 km/h (3 Bft) 100,00 %
03.10.2016 23:44 9,7 C 91 % 1023,9 hPa 0,0 l/m 14,2 km/h (3 Bft) W-SW 245 0 min 0,000 mm 0,0 UV-I 0 W/m 8,3 C 5,1 C 19,3 km/h (3 Bft) 100,00 %
03.10.2016 23:46 9,6 C 92 % 1023,8 hPa 0,0 l/m 14,6 km/h (3 Bft) W-SW 237 0 min 0,000 mm 0,0 UV-I 0 W/m 8,4 C 4,8 C 20,9 km/h (4 Bft) 100,00 %
03.10.2016 23:48 9,6 C 92 % 1023,9 hPa 0,0 l/m 17,2 km/h (3 Bft) SW 236 0 min 0,000 mm 0,0 UV-I 0 W/m 8,4 C 3,8 C 29,0 km/h (5 Bft) 100,00 %
03.10.2016 23:50 9,6 C 92 % 1023,9 hPa 0,0 l/m 15,4 km/h (3 Bft) SW 223 0 min 0,000 mm 0,0 UV-I 0 W/m 8,4 C 4,5 C 22,5 km/h (4 Bft) 100,00 %
03.10.2016 23:52 9,6 C 92 % 1023,8 hPa 0,0 l/m 15,9 km/h (3 Bft) SW 223 0 min 0,000 mm 0,0 UV-I 0 W/m 8,4 C 4,3 C 24,1 km/h (4 Bft) 100,00 %
03.10.2016 23:54 9,6 C 92 % 1023,9 hPa 0,0 l/m 15,0 km/h (3 Bft) SW 218 0 min 0,000 mm 0,0 UV-I 0 W/m 8,4 C 4,6 C 20,9 km/h (4 Bft) 100,00 %
03.10.2016 23:56 9,6 C 92 % 1023,9 hPa 0,0 l/m 17,4 km/h (3 Bft) SW 229 0 min 0,000 mm 0,0 UV-I 0 W/m 8,4 C 3,7 C 24,1 km/h (4 Bft) 100,00 %
03.10.2016 23:58 9,6 C 92 % 1023,9 hPa 0,0 l/m 16,4 km/h (3 Bft) W-SW 252 0 min 0,000 mm 0,0 UV-I 0 W/m 8,4 C 4,1 C 24,1 km/h (4 Bft) 100,00 %
_ Min-Zeit 23:46 15:20 00:36 - 19:04 - - - - - - 21:50 23:56 18:52 00:02
Minimum _ 9,6 C 74 % 1018,3 hPa - 3,4 km/h (1 Bft) - - - - - - 8,2 C 3,7 C 4,8 km/h (1 Bft) 5,56 %
_ Max-Zeit 15:16 00:00 21:22 16:48 15:18 - - 11:38 14:00 13:14 13:14 00:00 16:42 15:18 00:00
Maximum _ 13,7 C 96 % 1024,2 hPa 0,4 l/m 24,3 km/h
W (4 Bft)
- - 2 min 0,178 mm 2,7 UV-I 836 W/m 10,7 C 12,8 C 38,6 km/h
W-SW (5 Bft)
100,00 %
Durchschnitt _ 11,0 C 90 % 1021,6 hPa #2,6 l/m 11,4 km/h (2 Bft) W-SW - #1:08 h #1,168 mm 1,0 UV-I 140 W/m 9,4 C 8,2 C 17,9 km/h (3 Bft) 98,47 %